Wetterdaten: Samstag, 02.11.2013
Datum Zeit Temp. Aussen +5cm Feuchte Auss Luftdruck Regen Sonnenschein Regendauer UV Solar Windben
02.11.2013 00:00 8,2 C 7,2 C 97 % 1007,1 hPa 0,0 l/m 0 min 2 min 0,0 UV-I 0 W/m 12,9 km/h (3 Bft)
02.11.2013 00:02 8,2 C 7,2 C 97 % 1007,0 hPa 0,0 l/m 0 min 2 min 0,0 UV-I 0 W/m 20,6 km/h (4 Bft)
02.11.2013 00:06 8,2 C 7,2 C 97 % 1007,0 hPa 0,0 l/m 0 min 2 min 0,0 UV-I 0 W/m 15,4 km/h (3 Bft)
02.11.2013 00:08 8,2 C 7,2 C 97 % 1007,0 hPa 0,0 l/m 0 min 2 min 0,0 UV-I 0 W/m 10,3 km/h (2 Bft)
02.11.2013 00:10 8,2 C 7,2 C 97 % 1007,0 hPa 0,0 l/m 0 min 2 min 0,0 UV-I 0 W/m 7,7 km/h (2 Bft)
02.11.2013 00:12 8,2 C 7,2 C 97 % 1006,9 hPa 0,2 l/m 0 min 2 min 0,0 UV-I 0 W/m 10,3 km/h (2 Bft)
02.11.2013 00:14 8,2 C 7,2 C 97 % 1006,9 hPa 0,0 l/m 0 min 2 min 0,0 UV-I 0 W/m 18,0 km/h (3 Bft)
02.11.2013 00:16 8,2 C 7,2 C 97 % 1006,9 hPa 0,0 l/m 0 min 2 min 0,0 UV-I 0 W/m 10,3 km/h (2 Bft)
02.11.2013 00:18 8,2 C 7,2 C 97 % 1006,8 hPa 0,0 l/m 0 min 2 min 0,0 UV-I 0 W/m 7,7 km/h (2 Bft)
02.11.2013 00:20 8,2 C 7,2 C 97 % 1006,7 hPa 0,0 l/m 0 min 2 min 0,0 UV-I 0 W/m 12,9 km/h (3 Bft)
02.11.2013 00:22 8,2 C 7,2 C 97 % 1006,5 hPa 0,0 l/m 0 min 2 min 0,0 UV-I 0 W/m 12,9 km/h (3 Bft)
02.11.2013 00:24 8,2 C 7,2 C 97 % 1006,5 hPa 0,0 l/m 0 min 2 min 0,0 UV-I 0 W/m 10,3 km/h (2 Bft)
02.11.2013 00:26 8,2 C 7,2 C 97 % 1006,4 hPa 0,0 l/m 0 min 2 min 0,0 UV-I 0 W/m 18,0 km/h (3 Bft)
02.11.2013 00:28 8,2 C 7,2 C 97 % 1006,4 hPa 0,0 l/m 0 min 2 min 0,0 UV-I 0 W/m 12,9 km/h (3 Bft)
02.11.2013 00:30 8,2 C 7,2 C 97 % 1006,4 hPa 0,0 l/m 0 min 2 min 0,0 UV-I 0 W/m 15,4 km/h (3 Bft)
02.11.2013 00:32 8,2 C 7,2 C 97 % 1006,3 hPa 0,0 l/m 0 min 2 min 0,0 UV-I 0 W/m 7,7 km/h (2 Bft)
02.11.2013 00:34 8,2 C 7,2 C 97 % 1006,3 hPa 0,0 l/m 0 min 2 min 0,0 UV-I 0 W/m 15,4 km/h (3 Bft)
02.11.2013 00:36 8,2 C 7,2 C 97 % 1006,2 hPa 0,0 l/m 0 min 2 min 0,0 UV-I 0 W/m 15,4 km/h (3 Bft)
02.11.2013 00:38 8,2 C 7,2 C 97 % 1006,1 hPa 0,2 l/m 0 min 2 min 0,0 UV-I 0 W/m 7,7 km/h (2 Bft)
02.11.2013 00:40 8,2 C 7,2 C 97 % 1006,1 hPa 0,0 l/m 0 min 2 min 0,0 UV-I 0 W/m 10,3 km/h (2 Bft)
02.11.2013 00:42 8,2 C 7,2 C 97 % 1006,0 hPa 0,0 l/m 0 min 2 min 0,0 UV-I 0 W/m 12,9 km/h (3 Bft)
02.11.2013 00:44 8,2 C 7,2 C 97 % 1006,0 hPa 0,0 l/m 0 min 2 min 0,0 UV-I 0 W/m 12,9 km/h (3 Bft)
02.11.2013 00:46 8,2 C 7,2 C 97 % 1005,9 hPa 0,0 l/m 0 min 2 min 0,0 UV-I 0 W/m 7,7 km/h (2 Bft)
02.11.2013 00:48 8,2 C 7,2 C 97 % 1005,8 hPa 0,0 l/m 0 min 2 min 0,0 UV-I 0 W/m 10,3 km/h (2 Bft)
02.11.2013 00:50 8,2 C 7,2 C 98 % 1005,8 hPa 0,0 l/m 0 min 2 min 0,0 UV-I 0 W/m 12,9 km/h (3 Bft)
02.11.2013 00:52 8,2 C 7,2 C 98 % 1005,7 hPa 0,0 l/m 0 min 2 min 0,0 UV-I 0 W/m 10,3 km/h (2 Bft)
02.11.2013 00:54 8,2 C 7,2 C 98 % 1005,7 hPa 0,0 l/m 0 min 2 min 0,0 UV-I 0 W/m 7,7 km/h (2 Bft)
02.11.2013 00:56 8,2 C 7,2 C 98 % 1005,6 hPa 0,2 l/m 0 min 2 min 0,0 UV-I 0 W/m 7,7 km/h (2 Bft)
02.11.2013 00:58 8,2 C 7,2 C 98 % 1005,5 hPa 0,0 l/m 0 min 2 min 0,0 UV-I 0 W/m 5,1 km/h (1 Bft)
02.11.2013 01:00 8,2 C 7,2 C 98 % 1005,5 hPa 0,0 l/m 0 min 2 min 0,0 UV-I 0 W/m 12,9 km/h (3 Bft)
02.11.2013 01:02 8,2 C 7,2 C 98 % 1005,5 hPa 0,0 l/m 0 min 2 min 0,0 UV-I 0 W/m 7,7 km/h (2 Bft)
02.11.2013 01:04 8,2 C 7,2 C 98 % 1005,4 hPa 0,0 l/m 0 min 2 min 0,0 UV-I 0 W/m 7,7 km/h (2 Bft)
02.11.2013 01:06 8,2 C 7,2 C 98 % 1005,4 hPa 0,0 l/m 0 min 2 min 0,0 UV-I 0 W/m 5,1 km/h (1 Bft)
02.11.2013 01:08 8,2 C 7,2 C 98 % 1005,4 hPa 0,0 l/m 0 min 2 min 0,0 UV-I 0 W/m 7,7 km/h (2 Bft)
02.11.2013 01:10 8,2 C 7,2 C 98 % 1005,3 hPa 0,0 l/m 0 min 2 min 0,0 UV-I 0 W/m 10,3 km/h (2 Bft)
02.11.2013 01:12 8,2 C 7,2 C 98 % 1005,2 hPa 0,0 l/m 0 min 2 min 0,0 UV-I 0 W/m 12,9 km/h (3 Bft)
02.11.2013 01:14 8,2 C 7,2 C 98 % 1005,1 hPa 0,0 l/m 0 min 2 min 0,0 UV-I 0 W/m 12,9 km/h (3 Bft)
02.11.2013 01:16 8,2 C 7,2 C 98 % 1005,1 hPa 0,0 l/m 0 min 2 min 0,0 UV-I 0 W/m 18,0 km/h (3 Bft)
02.11.2013 01:18 8,2 C 7,2 C 98 % 1005,1 hPa 0,0 l/m 0 min 2 min 0,0 UV-I 0 W/m 5,1 km/h (1 Bft)
02.11.2013 01:20 8,2 C 7,2 C 98 % 1005,0 hPa 0,2 l/m 0 min 2 min 0,0 UV-I 0 W/m 18,0 km/h (3 Bft)
02.11.2013 01:22 8,2 C 7,2 C 98 % 1004,9 hPa 0,0 l/m 0 min 2 min 0,0 UV-I 0 W/m 7,7 km/h (2 Bft)
02.11.2013 01:24 8,2 C 7,2 C 98 % 1004,9 hPa 0,0 l/m 0 min 2 min 0,0 UV-I 0 W/m 10,3 km/h (2 Bft)
02.11.2013 01:26 8,2 C 7,2 C 98 % 1004,8 hPa 0,0 l/m 0 min 2 min 0,0 UV-I 0 W/m 12,9 km/h (3 Bft)
02.11.2013 01:28 8,2 C 7,2 C 98 % 1004,8 hPa 0,0 l/m 0 min 2 min 0,0 UV-I 0 W/m 5,1 km/h (1 Bft)
02.11.2013 01:30 8,2 C 7,2 C 98 % 1004,6 hPa 0,0 l/m 0 min 2 min 0,0 UV-I 0 W/m 15,4 km/h (3 Bft)
02.11.2013 01:32 8,2 C 7,2 C 98 % 1004,5 hPa 0,0 l/m 0 min 2 min 0,0 UV-I 0 W/m 12,9 km/h (3 Bft)
02.11.2013 01:34 8,2 C 7,2 C 98 % 1004,5 hPa 0,0 l/m 0 min 2 min 0,0 UV-I 0 W/m 12,9 km/h (3 Bft)
02.11.2013 01:36 8,2 C 7,2 C 98 % 1004,4 hPa 0,0 l/m 0 min 2 min 0,0 UV-I 0 W/m 20,6 km/h (4 Bft)
02.11.2013 01:38 8,2 C 7,2 C 98 % 1004,5 hPa 0,0 l/m 0 min 2 min 0,0 UV-I 0 W/m 15,4 km/h (3 Bft)
02.11.2013 01:40 8,2 C 7,2 C 98 % 1004,4 hPa 0,2 l/m 0 min 2 min 0,0 UV-I 0 W/m 10,3 km/h (2 Bft)
02.11.2013 01:42 8,2 C 7,2 C 98 % 1004,3 hPa 0,0 l/m 0 min 2 min 0,0 UV-I 0 W/m 10,3 km/h (2 Bft)
02.11.2013 01:44 8,2 C 7,2 C 98 % 1004,3 hPa 0,0 l/m 0 min 2 min 0,0 UV-I 0 W/m 12,9 km/h (3 Bft)
02.11.2013 01:46 8,2 C 7,2 C 98 % 1004,3 hPa 0,0 l/m 0 min 2 min 0,0 UV-I 0 W/m 10,3 km/h (2 Bft)
02.11.2013 01:48 8,2 C 7,2 C 98 % 1004,2 hPa 0,0 l/m 0 min 2 min 0,0 UV-I 0 W/m 10,3 km/h (2 Bft)
02.11.2013 01:50 8,2 C 7,2 C 98 % 1004,1 hPa 0,0 l/m 0 min 2 min 0,0 UV-I 0 W/m 12,9 km/h (3 Bft)
02.11.2013 01:52 8,2 C 7,2 C 98 % 1004,1 hPa 0,0 l/m 0 min 2 min 0,0 UV-I 0 W/m 12,9 km/h (3 Bft)
02.11.2013 01:54 8,2 C 7,2 C 98 % 1004,1 hPa 0,0 l/m 0 min 2 min 0,0 UV-I 0 W/m 10,3 km/h (2 Bft)
02.11.2013 01:56 8,2 C 7,2 C 98 % 1004,0 hPa 0,0 l/m 0 min 2 min 0,0 UV-I 0 W/m 12,9 km/h (3 Bft)
02.11.2013 01:58 8,2 C 7,2 C 100 % 1003,9 hPa 0,0 l/m 0 min 2 min 0,0 UV-I 0 W/m 10,3 km/h (2 Bft)
02.11.2013 02:00 8,2 C 7,2 C 100 % 1003,9 hPa 0,0 l/m 0 min 2 min 0,0 UV-I 0 W/m 12,9 km/h (3 Bft)
02.11.2013 02:02 8,2 C 7,2 C 100 % 1003,8 hPa 0,0 l/m 0 min 2 min 0,0 UV-I 0 W/m 7,7 km/h (2 Bft)
02.11.2013 02:04 8,2 C 7,2 C 100 % 1003,8 hPa 0,2 l/m 0 min 2 min 0,0 UV-I 0 W/m 18,0 km/h (3 Bft)
02.11.2013 02:06 8,2 C 7,2 C 100 % 1003,7 hPa 0,0 l/m 0 min 2 min 0,0 UV-I 0 W/m 12,9 km/h (3 Bft)
02.11.2013 02:08 8,2 C 7,2 C 100 % 1003,6 hPa 0,0 l/m 0 min 2 min 0,0 UV-I 0 W/m 15,4 km/h (3 Bft)
02.11.2013 02:10 8,2 C 7,2 C 100 % 1003,6 hPa 0,0 l/m 0 min 2 min 0,0 UV-I 0 W/m 28,3 km/h (4 Bft)
02.11.2013 02:12 8,2 C 7,2 C 98 % 1003,6 hPa 0,0 l/m 0 min 2 min 0,0 UV-I 0 W/m 15,4 km/h (3 Bft)
02.11.2013 02:14 8,2 C 7,2 C 98 % 1003,5 hPa 0,0 l/m 0 min 2 min 0,0 UV-I 0 W/m 7,7 km/h (2 Bft)
02.11.2013 02:16 8,2 C 7,2 C 98 % 1003,4 hPa 0,0 l/m 0 min 2 min 0,0 UV-I 0 W/m 18,0 km/h (3 Bft)
02.11.2013 02:18 8,2 C 7,2 C 98 % 1003,3 hPa 0,0 l/m 0 min 2 min 0,0 UV-I 0 W/m 12,9 km/h (3 Bft)
02.11.2013 02:20 8,2 C 7,2 C 98 % 1003,2 hPa 0,0 l/m 0 min 2 min 0,0 UV-I 0 W/m 15,4 km/h (3 Bft)
02.11.2013 02:22 8,2 C 7,2 C 98 % 1003,3 hPa 0,0 l/m 0 min 2 min 0,0 UV-I 0 W/m 15,4 km/h (3 Bft)
02.11.2013 02:24 8,2 C 7,2 C 98 % 1003,3 hPa 0,0 l/m 0 min 2 min 0,0 UV-I 0 W/m 18,0 km/h (3 Bft)
02.11.2013 02:26 8,2 C 7,2 C 98 % 1003,1 hPa 0,0 l/m 0 min 2 min 0,0 UV-I 0 W/m 20,6 km/h (4 Bft)
02.11.2013 02:28 8,2 C 7,2 C 98 % 1003,1 hPa 0,0 l/m 0 min 2 min 0,0 UV-I 0 W/m 23,2 km/h (4 Bft)
02.11.2013 02:30 8,2 C 7,2 C 98 % 1003,1 hPa 0,2 l/m 0 min 2 min 0,0 UV-I 0 W/m 20,6 km/h (4 Bft)
02.11.2013 02:32 8,2 C 7,2 C 98 % 1003,0 hPa 0,0 l/m 0 min 2 min 0,0 UV-I 0 W/m 18,0 km/h (3 Bft)
02.11.2013 02:34 8,2 C 7,2 C 98 % 1002,9 hPa 0,0 l/m 0 min 2 min 0,0 UV-I 0 W/m 18,0 km/h (3 Bft)
02.11.2013 02:36 8,2 C 7,2 C 98 % 1002,9 hPa 0,0 l/m 0 min 2 min 0,0 UV-I 0 W/m 25,7 km/h (4 Bft)
02.11.2013 02:38 8,2 C 7,2 C 98 % 1002,8 hPa 0,0 l/m 0 min 2 min 0,0 UV-I 0 W/m 30,9 km/h (5 Bft)
02.11.2013 02:40 8,2 C 7,2 C 98 % 1002,8 hPa 0,0 l/m 0 min 2 min 0,0 UV-I 0 W/m 18,0 km/h (3 Bft)
02.11.2013 02:42 8,2 C 7,2 C 98 % 1002,7 hPa 0,0 l/m 0 min 2 min 0,0 UV-I 0 W/m 12,9 km/h (3 Bft)
02.11.2013 02:44 8,2 C 7,2 C 98 % 1002,6 hPa 0,0 l/m 0 min 2 min 0,0 UV-I 0 W/m 20,6 km/h (4 Bft)
02.11.2013 02:46 8,3 C 7,2 C 98 % 1002,5 hPa 0,0 l/m 0 min 2 min 0,0 UV-I 0 W/m 20,6 km/h (4 Bft)
02.11.2013 02:48 8,3 C 7,2 C 98 % 1002,5 hPa 0,0 l/m 0 min 2 min 0,0 UV-I 0 W/m 20,6 km/h (4 Bft)
02.11.2013 02:50 8,3 C 7,2 C 98 % 1002,4 hPa 0,0 l/m 0 min 2 min 0,0 UV-I 0 W/m 12,9 km/h (3 Bft)
02.11.2013 02:52 8,3 C 7,2 C 98 % 1002,4 hPa 0,0 l/m 0 min 2 min 0,0 UV-I 0 W/m 12,9 km/h (3 Bft)
02.11.2013 02:54 8,3 C 7,2 C 98 % 1002,4 hPa 0,0 l/m 0 min 2 min 0,0 UV-I 0 W/m 12,9 km/h (3 Bft)
02.11.2013 02:56 8,3 C 7,2 C 98 % 1002,3 hPa 0,2 l/m 0 min 2 min 0,0 UV-I 0 W/m 20,6 km/h (4 Bft)
02.11.2013 02:58 8,3 C 7,2 C 98 % 1002,3 hPa 0,0 l/m 0 min 2 min 0,0 UV-I 0 W/m 28,3 km/h (4 Bft)
02.11.2013 03:00 8,3 C 7,2 C 98 % 1002,2 hPa 0,0 l/m 0 min 2 min 0,0 UV-I 0 W/m 33,5 km/h (5 Bft)
02.11.2013 03:02 8,3 C 7,2 C 98 % 1002,1 hPa 0,0 l/m 0 min 2 min 0,0 UV-I 0 W/m 15,4 km/h (3 Bft)
02.11.2013 03:04 8,3 C 7,2 C 98 % 1002,2 hPa 0,0 l/m 0 min 2 min 0,0 UV-I 0 W/m 20,6 km/h (4 Bft)
02.11.2013 03:06 8,3 C 7,2 C 98 % 1002,1 hPa 0,0 l/m 0 min 2 min 0,0 UV-I 0 W/m 18,0 km/h (3 Bft)
02.11.2013 03:08 8,3 C 7,2 C 98 % 1002,1 hPa 0,0 l/m 0 min 2 min 0,0 UV-I 0 W/m 28,3 km/h (4 Bft)
02.11.2013 03:10 8,3 C 7,2 C 98 % 1002,0 hPa 0,0 l/m 0 min 2 min 0,0 UV-I 0 W/m 23,2 km/h (4 Bft)
02.11.2013 03:12 8,3 C 7,2 C 98 % 1001,9 hPa 0,0 l/m 0 min 2 min 0,0 UV-I 0 W/m 15,4 km/h (3 Bft)
02.11.2013 03:14 8,4 C 7,2 C 98 % 1001,8 hPa 0,2 l/m 0 min 2 min 0,0 UV-I 0 W/m 23,2 km/h (4 Bft)
02.11.2013 03:16 8,4 C 7,2 C 98 % 1001,8 hPa 0,0 l/m 0 min 2 min 0,0 UV-I 0 W/m 23,2 km/h (4 Bft)
02.11.2013 03:18 8,4 C 7,2 C 98 % 1001,7 hPa 0,0 l/m 0 min 2 min 0,0 UV-I 0 W/m 23,2 km/h (4 Bft)
02.11.2013 03:20 8,4 C 7,2 C 98 % 1001,7 hPa 0,0 l/m 0 min 2 min 0,0 UV-I 0 W/m 10,3 km/h (2 Bft)
02.11.2013 03:22 8,4 C 7,2 C 98 % 1001,7 hPa 0,0 l/m 0 min 2 min 0,0 UV-I 0 W/m 18,0 km/h (3 Bft)
02.11.2013 03:24 8,4 C 7,2 C 98 % 1001,6 hPa 0,0 l/m 0 min 2 min 0,0 UV-I 0 W/m 28,3 km/h (4 Bft)
02.11.2013 03:26 8,4 C 7,2 C 98 % 1001,7 hPa 0,0 l/m 0 min 2 min 0,0 UV-I 0 W/m 23,2 km/h (4 Bft)
02.11.2013 03:28 8,4 C 7,2 C 98 % 1001,7 hPa 0,0 l/m 0 min 2 min 0,0 UV-I 0 W/m 18,0 km/h (3 Bft)
02.11.2013 03:30 8,4 C 7,2 C 98 % 1001,6 hPa 0,0 l/m 0 min 2 min 0,0 UV-I 0 W/m 28,3 km/h (4 Bft)
02.11.2013 03:32 8,4 C 7,2 C 98 % 1001,6 hPa 0,0 l/m 0 min 2 min 0,0 UV-I 0 W/m 23,2 km/h (4 Bft)
02.11.2013 03:34 8,4 C 7,2 C 98 % 1001,6 hPa 0,0 l/m 0 min 2 min 0,0 UV-I 0 W/m 23,2 km/h (4 Bft)
02.11.2013 03:36 8,4 C 7,2 C 98 % 1001,5 hPa 0,0 l/m 0 min 2 min 0,0 UV-I 0 W/m 18,0 km/h (3 Bft)
02.11.2013 03:38 8,4 C 7,2 C 98 % 1001,5 hPa 0,2 l/m 0 min 2 min 0,0 UV-I 0 W/m 12,9 km/h (3 Bft)
02.11.2013 03:40 8,4 C 7,2 C 98 % 1001,5 hPa 0,0 l/m 0 min 2 min 0,0 UV-I 0 W/m 18,0 km/h (3 Bft)
02.11.2013 03:42 8,4 C 7,2 C 98 % 1001,5 hPa 0,0 l/m 0 min 2 min 0,0 UV-I 0 W/m 15,4 km/h (3 Bft)
02.11.2013 03:44 8,4 C 7,2 C 98 % 1001,4 hPa 0,0 l/m 0 min 2 min 0,0 UV-I 0 W/m 15,4 km/h (3 Bft)
02.11.2013 03:46 8,4 C 7,2 C 98 % 1001,4 hPa 0,0 l/m 0 min 2 min 0,0 UV-I 0 W/m 12,9 km/h (3 Bft)
02.11.2013 03:48 8,5 C 7,2 C 98 % 1001,4 hPa 0,0 l/m 0 min 2 min 0,0 UV-I 0 W/m 15,4 km/h (3 Bft)
02.11.2013 03:50 8,5 C 7,2 C 98 % 1001,3 hPa 0,0 l/m 0 min 2 min 0,0 UV-I 0 W/m 7,7 km/h (2 Bft)
02.11.2013 03:52 8,5 C 7,2 C 98 % 1001,3 hPa 0,0 l/m 0 min 2 min 0,0 UV-I 0 W/m 12,9 km/h (3 Bft)
02.11.2013 03:54 8,5 C 7,2 C 98 % 1001,2 hPa 0,0 l/m 0 min 2 min 0,0 UV-I 0 W/m 15,4 km/h (3 Bft)
02.11.2013 03:56 8,5 C 7,2 C 98 % 1001,2 hPa 0,0 l/m 0 min 2 min 0,0 UV-I 0 W/m 15,4 km/h (3 Bft)
02.11.2013 03:58 8,5 C 7,2 C 98 % 1001,1 hPa 0,0 l/m 0 min 2 min 0,0 UV-I 0 W/m 15,4 km/h (3 Bft)
02.11.2013 04:00 8,5 C 7,2 C 98 % 1001,1 hPa 0,2 l/m 0 min 2 min 0,0 UV-I 0 W/m 10,3 km/h (2 Bft)
02.11.2013 04:02 8,5 C 7,2 C 98 % 1001,0 hPa 0,0 l/m 0 min 2 min 0,0 UV-I 0 W/m 15,4 km/h (3 Bft)
02.11.2013 04:04 8,6 C 7,2 C 98 % 1001,0 hPa 0,0 l/m 0 min 2 min 0,0 UV-I 0 W/m 18,0 km/h (3 Bft)
02.11.2013 04:06 8,6 C 7,2 C 98 % 1001,0 hPa 0,0 l/m 0 min 2 min 0,0 UV-I 0 W/m 15,4 km/h (3 Bft)
02.11.2013 04:08 8,6 C 7,2 C 98 % 1001,0 hPa 0,0 l/m 0 min 2 min 0,0 UV-I 0 W/m 30,9 km/h (5 Bft)
02.11.2013 04:10 8,6 C 7,2 C 98 % 1000,9 hPa 0,0 l/m 0 min 2 min 0,0 UV-I 0 W/m 18,0 km/h (3 Bft)
02.11.2013 04:12 8,6 C 7,2 C 98 % 1000,8 hPa 0,0 l/m 0 min 2 min 0,0 UV-I 0 W/m 20,6 km/h (4 Bft)
02.11.2013 04:14 8,6 C 7,8 C 98 % 1000,9 hPa 0,0 l/m 0 min 2 min 0,0 UV-I 0 W/m 12,9 km/h (3 Bft)
02.11.2013 04:16 8,6 C 7,2 C 98 % 1000,8 hPa 0,0 l/m 0 min 2 min 0,0 UV-I 0 W/m 12,9 km/h (3 Bft)
02.11.2013 04:18 8,6 C 7,8 C 98 % 1000,8 hPa 0,0 l/m 0 min 2 min 0,0 UV-I 0 W/m 18,0 km/h (3 Bft)
02.11.2013 04:20 8,6 C 7,8 C 98 % 1000,8 hPa 0,0 l/m 0 min 2 min 0,0 UV-I 0 W/m 18,0 km/h (3 Bft)
02.11.2013 04:22 8,6 C 7,8 C 98 % 1000,7 hPa 0,2 l/m 0 min 2 min 0,0 UV-I 0 W/m 15,4 km/h (3 Bft)
02.11.2013 04:24 8,6 C 7,8 C 98 % 1000,7 hPa 0,0 l/m 0 min 2 min 0,0 UV-I 0 W/m 12,9 km/h (3 Bft)
02.11.2013 04:26 8,6 C 7,8 C 98 % 1000,6 hPa 0,0 l/m 0 min 2 min 0,0 UV-I 0 W/m 15,4 km/h (3 Bft)
02.11.2013 04:28 8,6 C 7,8 C 98 % 1000,4 hPa 0,0 l/m 0 min 2 min 0,0 UV-I 0 W/m 15,4 km/h (3 Bft)
02.11.2013 04:30 8,6 C 7,8 C 98 % 1000,5 hPa 0,0 l/m 0 min 2 min 0,0 UV-I 0 W/m 18,0 km/h (3 Bft)
02.11.2013 04:32 8,6 C 7,8 C 98 % 1000,4 hPa 0,0 l/m 0 min 2 min 0,0 UV-I 0 W/m 18,0 km/h (3 Bft)
02.11.2013 04:34 8,6 C 7,8 C 98 % 1000,4 hPa 0,0 l/m 0 min 0 min 0,0 UV-I 0 W/m 15,4 km/h (3 Bft)
02.11.2013 04:36 8,6 C 7,8 C 98 % 1000,4 hPa 0,0 l/m 0 min 0 min 0,0 UV-I 0 W/m 10,3 km/h (2 Bft)
02.11.2013 04:38 8,6 C 7,8 C 98 % 1000,3 hPa 0,0 l/m 0 min 0 min 0,0 UV-I 0 W/m 12,9 km/h (3 Bft)
02.11.2013 04:40 8,7 C 7,8 C 98 % 1000,2 hPa 0,0 l/m 0 min 0 min 0,0 UV-I 0 W/m 10,3 km/h (2 Bft)
02.11.2013 04:42 8,7 C 7,8 C 98 % 1000,0 hPa 0,0 l/m 0 min 0 min 0,0 UV-I 0 W/m 18,0 km/h (3 Bft)
02.11.2013 04:44 8,7 C 7,8 C 98 % 1000,0 hPa 0,2 l/m 0 min 0 min 0,0 UV-I 0 W/m 12,9 km/h (3 Bft)
02.11.2013 04:46 8,7 C 7,8 C 98 % 999,8 hPa 0,0 l/m 0 min 0 min 0,0 UV-I 0 W/m 18,0 km/h (3 Bft)
02.11.2013 04:48 8,7 C 7,8 C 98 % 999,7 hPa 0,0 l/m 0 min 0 min 0,0 UV-I 0 W/m 15,4 km/h (3 Bft)
02.11.2013 04:50 8,7 C 7,8 C 98 % 999,7 hPa 0,0 l/m 0 min 0 min 0,0 UV-I 0 W/m 18,0 km/h (3 Bft)
02.11.2013 04:52 8,7 C 7,8 C 98 % 999,9 hPa 0,0 l/m 0 min 2 min 0,0 UV-I 0 W/m 15,4 km/h (3 Bft)
02.11.2013 04:54 8,7 C 7,8 C 98 % 999,9 hPa 0,0 l/m 0 min 2 min 0,0 UV-I 0 W/m 18,0 km/h (3 Bft)
02.11.2013 04:56 8,7 C 7,8 C 98 % 999,9 hPa 0,0 l/m 0 min 2 min 0,0 UV-I 0 W/m 12,9 km/h (3 Bft)
02.11.2013 04:58 8,7 C 7,8 C 98 % 1000,0 hPa 0,0 l/m 0 min 2 min 0,0 UV-I 0 W/m 18,0 km/h (3 Bft)
02.11.2013 05:00 8,7 C 7,8 C 98 % 999,9 hPa 0,0 l/m 0 min 2 min 0,0 UV-I 0 W/m 15,4 km/h (3 Bft)
02.11.2013 05:02 8,7 C 7,8 C 98 % 1000,0 hPa 0,0 l/m 0 min 2 min 0,0 UV-I 0 W/m 12,9 km/h (3 Bft)
02.11.2013 05:04 8,7 C 7,8 C 98 % 1000,0 hPa 0,0 l/m 0 min 2 min 0,0 UV-I 0 W/m 15,4 km/h (3 Bft)
02.11.2013 05:06 8,7 C 7,8 C 98 % 1000,1 hPa 0,0 l/m 0 min 2 min 0,0 UV-I 0 W/m 7,7 km/h (2 Bft)
02.11.2013 05:08 8,8 C 7,8 C 98 % 1000,1 hPa 0,2 l/m 0 min 2 min 0,0 UV-I 0 W/m 7,7 km/h (2 Bft)
02.11.2013 05:10 8,8 C 7,8 C 98 % 1000,1 hPa 0,0 l/m 0 min 2 min 0,0 UV-I 0 W/m 7,7 km/h (2 Bft)
02.11.2013 05:12 8,8 C 7,8 C 98 % 1000,1 hPa 0,0 l/m 0 min 0 min 0,0 UV-I 0 W/m 15,4 km/h (3 Bft)
02.11.2013 05:14 8,8 C 7,8 C 98 % 1000,1 hPa 0,0 l/m 0 min 0 min 0,0 UV-I 0 W/m 7,7 km/h (2 Bft)
02.11.2013 05:16 8,8 C 7,8 C 98 % 1000,2 hPa 0,0 l/m 0 min 0 min 0,0 UV-I 0 W/m 7,7 km/h (2 Bft)
02.11.2013 05:18 8,8 C 7,8 C 98 % 1000,2 hPa 0,0 l/m 0 min 0 min 0,0 UV-I 0 W/m 12,9 km/h (3 Bft)
02.11.2013 05:20 8,8 C 7,8 C 98 % 1000,2 hPa 0,0 l/m 0 min 0 min 0,0 UV-I 0 W/m 7,7 km/h (2 Bft)
02.11.2013 05:22 8,9 C 7,8 C 98 % 1000,1 hPa 0,0 l/m 0 min 0 min 0,0 UV-I 0 W/m 12,9 km/h (3 Bft)
02.11.2013 05:24 8,9 C 7,8 C 98 % 1000,1 hPa 0,0 l/m 0 min 0 min 0,0 UV-I 0 W/m 10,3 km/h (2 Bft)
02.11.2013 05:26 8,9 C 7,8 C 98 % 1000,3 hPa 0,0 l/m 0 min 0 min 0,0 UV-I 0 W/m 0,0 km/h (0 Bft)
02.11.2013 05:28 8,9 C 7,8 C 98 % 1000,2 hPa 0,0 l/m 0 min 0 min 0,0 UV-I 0 W/m 5,1 km/h (1 Bft)
02.11.2013 05:30 8,9 C 7,8 C 98 % 1000,2 hPa 0,0 l/m 0 min 0 min 0,0 UV-I 0 W/m 0,0 km/h (0 Bft)
02.11.2013 05:32 8,9 C 7,8 C 98 % 1000,2 hPa 0,0 l/m 0 min 0 min 0,0 UV-I 0 W/m 5,1 km/h (1 Bft)
02.11.2013 05:34 8,9 C 7,8 C 98 % 1000,2 hPa 0,2 l/m 0 min 0 min 0,0 UV-I 0 W/m 0,0 km/h (0 Bft)
02.11.2013 05:36 8,9 C 7,8 C 98 % 1000,3 hPa 0,0 l/m 0 min 0 min 0,0 UV-I 0 W/m 2,6 km/h (1 Bft)
02.11.2013 05:38 8,9 C 7,8 C 99 % 1000,2 hPa 0,0 l/m 0 min 0 min 0,0 UV-I 0 W/m 7,7 km/h (2 Bft)
02.11.2013 05:40 9,0 C 7,8 C 99 % 1000,2 hPa 0,0 l/m 0 min 0 min 0,0 UV-I 0 W/m 2,6 km/h (1 Bft)
02.11.2013 05:42 9,0 C 7,8 C 99 % 1000,1 hPa 0,0 l/m 0 min 0 min 0,0 UV-I 0 W/m 0,0 km/h (0 Bft)
02.11.2013 05:44 9,0 C 7,8 C 99 % 1000,2 hPa 0,0 l/m 0 min 0 min 0,0 UV-I 0 W/m 0,0 km/h (0 Bft)
02.11.2013 05:46 9,0 C 7,8 C 99 % 1000,2 hPa 0,0 l/m 0 min 0 min 0,0 UV-I 0 W/m 2,6 km/h (1 Bft)
02.11.2013 05:48 9,0 C 7,8 C 99 % 1000,2 hPa 0,0 l/m 0 min 0 min 0,0 UV-I 0 W/m 0,0 km/h (0 Bft)
02.11.2013 05:50 9,0 C 7,8 C 99 % 1000,2 hPa 0,0 l/m 0 min 0 min 0,0 UV-I 0 W/m 0,0 km/h (0 Bft)
02.11.2013 05:52 9,0 C 7,8 C 99 % 1000,2 hPa 0,0 l/m 0 min 0 min 0,0 UV-I 0 W/m 0,0 km/h (0 Bft)
02.11.2013 05:54 9,1 C 7,8 C 99 % 1000,2 hPa 0,0 l/m 0 min 0 min 0,0 UV-I 0 W/m 0,0 km/h (0 Bft)
02.11.2013 05:56 9,1 C 7,8 C 99 % 1000,2 hPa 0,0 l/m 0 min 0 min 0,0 UV-I 0 W/m 2,6 km/h (1 Bft)
02.11.2013 05:58 9,1 C 7,8 C 99 % 1000,2 hPa 0,0 l/m 0 min 0 min 0,0 UV-I 0 W/m 0,0 km/h (0 Bft)
02.11.2013 06:00 9,1 C 7,8 C 99 % 1000,2 hPa 0,0 l/m 0 min 0 min 0,0 UV-I 0 W/m 7,7 km/h (2 Bft)
02.11.2013 06:02 9,1 C 7,8 C 99 % 1000,2 hPa 0,2 l/m 0 min 0 min 0,0 UV-I 0 W/m 2,6 km/h (1 Bft)
02.11.2013 06:06 9,1 C 7,8 C 99 % 1000,2 hPa 0,0 l/m 0 min 0 min 0,0 UV-I 0 W/m 2,6 km/h (1 Bft)
02.11.2013 06:08 9,1 C 7,8 C 99 % 1000,3 hPa 0,0 l/m 0 min 0 min 0,0 UV-I 0 W/m 0,0 km/h (0 Bft)
02.11.2013 06:10 9,1 C 8,3 C 99 % 1000,2 hPa 0,0 l/m 0 min 0 min 0,0 UV-I 0 W/m 0,0 km/h (0 Bft)
02.11.2013 06:12 9,2 C 8,3 C 99 % 1000,2 hPa 0,0 l/m 0 min 0 min 0,0 UV-I 0 W/m 0,0 km/h (0 Bft)
02.11.2013 06:14 9,2 C 8,3 C 99 % 1000,2 hPa 0,0 l/m 0 min 0 min 0,0 UV-I 0 W/m 5,1 km/h (1 Bft)
02.11.2013 06:16 9,2 C 8,3 C 99 % 1000,2 hPa 0,0 l/m 0 min 0 min 0,0 UV-I 0 W/m 2,6 km/h (1 Bft)
02.11.2013 06:18 9,2 C 8,3 C 99 % 1000,2 hPa 0,0 l/m 0 min 0 min 0,0 UV-I 0 W/m 5,1 km/h (1 Bft)
02.11.2013 06:20 9,2 C 8,3 C 99 % 1000,2 hPa 0,0 l/m 0 min 0 min 0,0 UV-I 0 W/m 0,0 km/h (0 Bft)
02.11.2013 06:22 9,2 C 8,3 C 99 % 1000,1 hPa 0,0 l/m 0 min 0 min 0,0 UV-I 0 W/m 0,0 km/h (0 Bft)
02.11.2013 06:24 9,2 C 8,3 C 99 % 1000,2 hPa 0,0 l/m 0 min 0 min 0,0 UV-I 0 W/m 0,0 km/h (0 Bft)
02.11.2013 06:26 9,2 C 8,3 C 99 % 1000,2 hPa 0,0 l/m 0 min 0 min 0,0 UV-I 0 W/m 0,0 km/h (0 Bft)
02.11.2013 06:28 9,2 C 8,3 C 99 % 1000,2 hPa 0,0 l/m 0 min 0 min 0,0 UV-I 0 W/m 0,0 km/h (0 Bft)
02.11.2013 06:30 9,2 C 8,3 C 99 % 1000,2 hPa 0,0 l/m 0 min 0 min 0,0 UV-I 0 W/m 0,0 km/h (0 Bft)
02.11.2013 06:32 9,2 C 8,3 C 99 % 1000,1 hPa 0,2 l/m 0 min 0 min 0,0 UV-I 0 W/m 0,0 km/h (0 Bft)
02.11.2013 06:34 9,3 C 8,3 C 99 % 1000,1 hPa 0,0 l/m 0 min 0 min 0,0 UV-I 0 W/m 0,0 km/h (0 Bft)
02.11.2013 06:36 9,3 C 8,3 C 99 % 1000,1 hPa 0,0 l/m 0 min 0 min 0,0 UV-I 0 W/m 0,0 km/h (0 Bft)
02.11.2013 06:38 9,3 C 8,3 C 99 % 1000,1 hPa 0,0 l/m 0 min 0 min 0,0 UV-I 0 W/m 0,0 km/h (0 Bft)
02.11.2013 06:40 9,3 C 8,3 C 99 % 1000,1 hPa 0,0 l/m 0 min 0 min 0,0 UV-I 0 W/m 0,0 km/h (0 Bft)
02.11.2013 06:42 9,3 C 8,3 C 99 % 1000,1 hPa 0,0 l/m 0 min 0 min 0,0 UV-I 0 W/m 0,0 km/h (0 Bft)
02.11.2013 06:44 9,4 C 8,3 C 99 % 1000,1 hPa 0,0 l/m 0 min 0 min 0,0 UV-I 0 W/m 0,0 km/h (0 Bft)
02.11.2013 06:46 9,4 C 8,3 C 99 % 1000,1 hPa 0,0 l/m 0 min 0 min 0,0 UV-I 0 W/m 5,1 km/h (1 Bft)
02.11.2013 06:48 9,4 C 8,3 C 99 % 1000,1 hPa 0,0 l/m 0 min 0 min 0,0 UV-I 0 W/m 0,0 km/h (0 Bft)
02.11.2013 06:50 9,4 C 8,3 C 99 % 1000,2 hPa 0,0 l/m 0 min 0 min 0,0 UV-I 0 W/m 2,6 km/h (1 Bft)
02.11.2013 06:52 9,4 C 8,3 C 99 % 1000,1 hPa 0,0 l/m 0 min 0 min 0,0 UV-I 0 W/m 0,0 km/h (0 Bft)
02.11.2013 06:54 9,5 C 8,3 C 99 % 1000,1 hPa 0,0 l/m 0 min 0 min 0,0 UV-I 0 W/m 0,0 km/h (0 Bft)
02.11.2013 06:56 9,5 C 8,3 C 99 % 1000,2 hPa 0,0 l/m 0 min 0 min 0,0 UV-I 0 W/m 2,6 km/h (1 Bft)
02.11.2013 06:58 9,6 C 8,3 C 99 % 1000,2 hPa 0,0 l/m 0 min 0 min 0,0 UV-I 0 W/m 0,0 km/h (0 Bft)
02.11.2013 07:00 9,6 C 8,3 C 99 % 1000,2 hPa 0,2 l/m 0 min 0 min 0,0 UV-I 0 W/m 0,0 km/h (0 Bft)
02.11.2013 07:02 9,6 C 8,3 C 99 % 1000,3 hPa 0,0 l/m 0 min 0 min 0,0 UV-I 0 W/m 5,1 km/h (1 Bft)
02.11.2013 07:04 9,6 C 8,3 C 99 % 1000,3 hPa 0,0 l/m 0 min 0 min 0,0 UV-I 0 W/m 7,7 km/h (2 Bft)
02.11.2013 07:06 9,6 C 8,3 C 99 % 1000,2 hPa 0,0 l/m 0 min 0 min 0,0 UV-I 0 W/m 0,0 km/h (0 Bft)
02.11.2013 07:08 9,6 C 8,3 C 99 % 1000,3 hPa 0,0 l/m 0 min 0 min 0,0 UV-I 0 W/m 0,0 km/h (0 Bft)
02.11.2013 07:10 9,7 C 8,3 C 99 % 1000,2 hPa 0,0 l/m 0 min 0 min 0,0 UV-I 0 W/m 0,0 km/h (0 Bft)
02.11.2013 07:12 9,7 C 8,3 C 99 % 1000,3 hPa 0,0 l/m 0 min 0 min 0,0 UV-I 0 W/m 0,0 km/h (0 Bft)
02.11.2013 07:14 9,7 C 8,3 C 99 % 1000,3 hPa 0,0 l/m 0 min 0 min 0,0 UV-I 0 W/m 5,1 km/h (1 Bft)
02.11.2013 07:16 9,7 C 8,3 C 99 % 1000,4 hPa 0,0 l/m 0 min 0 min 0,0 UV-I 0 W/m 0,0 km/h (0 Bft)
02.11.2013 07:18 9,7 C 8,3 C 99 % 1000,3 hPa 0,0 l/m 0 min 0 min 0,0 UV-I 0 W/m 0,0 km/h (0 Bft)
02.11.2013 07:20 9,7 C 8,3 C 99 % 1000,3 hPa 0,0 l/m 0 min 0 min 0,0 UV-I 0 W/m 0,0 km/h (0 Bft)
02.11.2013 07:22 9,7 C 8,3 C 99 % 1000,3 hPa 0,0 l/m 0 min 0 min 0,0 UV-I 0 W/m 0,0 km/h (0 Bft)
02.11.2013 07:24 9,7 C 8,3 C 99 % 1000,3 hPa 0,0 l/m 0 min 0 min 0,0 UV-I 0 W/m 0,0 km/h (0 Bft)
02.11.2013 07:26 9,7 C 8,3 C 99 % 1000,3 hPa 0,0 l/m 0 min 0 min 0,0 UV-I 0 W/m 5,1 km/h (1 Bft)
02.11.2013 07:28 9,7 C 8,3 C 99 % 1000,3 hPa 0,0 l/m 0 min 0 min 0,0 UV-I 0 W/m 0,0 km/h (0 Bft)
02.11.2013 07:30 9,8 C 8,9 C 99 % 1000,3 hPa 0,0 l/m 0 min 0 min 0,0 UV-I 0 W/m 7,7 km/h (2 Bft)
02.11.2013 07:32 9,8 C 8,9 C 99 % 1000,3 hPa 0,2 l/m 0 min 0 min 0,0 UV-I 0 W/m 0,0 km/h (0 Bft)
02.11.2013 07:34 9,8 C 8,9 C 99 % 1000,2 hPa 0,0 l/m 0 min 0 min 0,0 UV-I 0 W/m 0,0 km/h (0 Bft)
02.11.2013 07:36 9,8 C 8,9 C 99 % 1000,3 hPa 0,0 l/m 0 min 0 min 0,0 UV-I 0 W/m 7,7 km/h (2 Bft)
02.11.2013 07:38 9,8 C 8,9 C 99 % 1000,3 hPa 0,0 l/m 0 min 0 min 0,0 UV-I 5 W/m 0,0 km/h (0 Bft)
02.11.2013 07:40 9,8 C 8,9 C 99 % 1000,4 hPa 0,0 l/m 0 min 0 min 0,0 UV-I 5 W/m 0,0 km/h (0 Bft)
02.11.2013 07:42 9,8 C 8,9 C 99 % 1000,4 hPa 0,0 l/m 0 min 0 min 0,0 UV-I 7 W/m 5,1 km/h (1 Bft)
02.11.2013 07:44 9,8 C 8,9 C 99 % 1000,4 hPa 0,0 l/m 0 min 0 min 0,0 UV-I 7 W/m 2,6 km/h (1 Bft)
02.11.2013 07:46 9,9 C 8,9 C 99 % 1000,4 hPa 0,0 l/m 0 min 0 min 0,0 UV-I 7 W/m 5,1 km/h (1 Bft)
02.11.2013 07:48 9,9 C 8,9 C 99 % 1000,4 hPa 0,0 l/m 0 min 0 min 0,0 UV-I 9 W/m 2,6 km/h (1 Bft)
02.11.2013 07:50 9,9 C 8,9 C 99 % 1000,4 hPa 0,0 l/m 0 min 0 min 0,0 UV-I 9 W/m 0,0 km/h (0 Bft)
02.11.2013 07:52 9,9 C 8,9 C 99 % 1000,3 hPa 0,0 l/m 0 min 0 min 0,0 UV-I 9 W/m 0,0 km/h (0 Bft)
02.11.2013 07:54 9,9 C 8,9 C 99 % 1000,3 hPa 0,0 l/m 0 min 0 min 0,0 UV-I 9 W/m 0,0 km/h (0 Bft)
02.11.2013 07:56 9,9 C 8,9 C 99 % 1000,4 hPa 0,0 l/m 0 min 0 min 0,0 UV-I 11 W/m 0,0 km/h (0 Bft)
02.11.2013 07:58 9,9 C 8,9 C 99 % 1000,4 hPa 0,0 l/m 0 min 0 min 0,0 UV-I 9 W/m 0,0 km/h (0 Bft)
02.11.2013 08:00 9,9 C 8,9 C 99 % 1000,5 hPa 0,0 l/m 0 min 0 min 0,0 UV-I 7 W/m 0,0 km/h (0 Bft)
02.11.2013 08:02 9,9 C 8,9 C 99 % 1000,4 hPa 0,0 l/m 0 min 0 min 0,0 UV-I 7 W/m 7,7 km/h (2 Bft)
02.11.2013 08:04 9,9 C 8,9 C 99 % 1000,4 hPa 0,0 l/m 0 min 0 min 0,0 UV-I 7 W/m 0,0 km/h (0 Bft)
02.11.2013 08:06 9,9 C 8,9 C 99 % 1000,4 hPa 0,2 l/m 0 min 0 min 0,0 UV-I 7 W/m 0,0 km/h (0 Bft)
02.11.2013 08:08 9,9 C 8,9 C 99 % 1000,4 hPa 0,0 l/m 0 min 0 min 0,0 UV-I 7 W/m 0,0 km/h (0 Bft)
02.11.2013 08:10 10,0 C 8,9 C 99 % 1000,4 hPa 0,0 l/m 0 min 0 min 0,0 UV-I 9 W/m 0,0 km/h (0 Bft)
02.11.2013 08:12 10,0 C 8,9 C 99 % 1000,4 hPa 0,0 l/m 0 min 0 min 0,0 UV-I 11 W/m 0,0 km/h (0 Bft)
02.11.2013 08:14 10,0 C 8,9 C 99 % 1000,3 hPa 0,0 l/m 0 min 0 min 0,0 UV-I 14 W/m 0,0 km/h (0 Bft)
02.11.2013 08:16 10,0 C 8,9 C 99 % 1000,3 hPa 0,0 l/m 0 min 0 min 0,0 UV-I 16 W/m 0,0 km/h (0 Bft)
02.11.2013 08:18 10,0 C 8,9 C 99 % 1000,4 hPa 0,0 l/m 0 min 0 min 0,0 UV-I 23 W/m 0,0 km/h (0 Bft)
02.11.2013 08:20 10,1 C 8,9 C 99 % 1000,4 hPa 0,0 l/m 0 min 0 min 0,0 UV-I 26 W/m 0,0 km/h (0 Bft)
02.11.2013 08:22 10,1 C 8,9 C 99 % 1000,4 hPa 0,0 l/m 0 min 0 min 0,0 UV-I 26 W/m 0,0 km/h (0 Bft)
02.11.2013 08:24 10,1 C 8,9 C 99 % 1000,4 hPa 0,0 l/m 0 min 0 min 0,0 UV-I 19 W/m 0,0 km/h (0 Bft)
02.11.2013 08:26 10,1 C 8,9 C 99 % 1000,5 hPa 0,0 l/m 0 min 0 min 0,0 UV-I 21 W/m 0,0 km/h (0 Bft)
02.11.2013 08:28 10,1 C 8,9 C 99 % 1000,6 hPa 0,0 l/m 0 min 0 min 0,0 UV-I 21 W/m 7,7 km/h (2 Bft)
02.11.2013 08:30 10,2 C 8,9 C 99 % 1000,6 hPa 0,0 l/m 0 min 0 min 0,0 UV-I 21 W/m 7,7 km/h (2 Bft)
02.11.2013 08:32 10,2 C 8,9 C 99 % 1000,7 hPa 0,0 l/m 0 min 0 min 0,0 UV-I 19 W/m 0,0 km/h (0 Bft)
02.11.2013 08:34 10,2 C 8,9 C 98 % 1000,7 hPa 0,0 l/m 0 min 0 min 0,0 UV-I 19 W/m 0,0 km/h (0 Bft)
02.11.2013 08:36 10,2 C 8,9 C 98 % 1000,7 hPa 0,0 l/m 0 min 0 min 0,0 UV-I 19 W/m 0,0 km/h (0 Bft)
02.11.2013 08:38 10,2 C 8,9 C 98 % 1000,7 hPa 0,0 l/m 0 min 0 min 0,0 UV-I 19 W/m 0,0 km/h (0 Bft)
02.11.2013 08:40 10,3 C 8,9 C 98 % 1000,7 hPa 0,2 l/m 0 min 0 min 0,0 UV-I 19 W/m 2,6 km/h (1 Bft)
02.11.2013 08:42 10,3 C 8,9 C 98 % 1000,7 hPa 0,0 l/m 0 min 0 min 0,0 UV-I 19 W/m 10,3 km/h (2 Bft)
02.11.2013 08:44 10,3 C 8,9 C 98 % 1000,7 hPa 0,0 l/m 0 min 0 min 0,0 UV-I 18 W/m 2,6 km/h (1 Bft)
02.11.2013 08:46 10,3 C 8,9 C 98 % 1000,7 hPa 0,0 l/m 0 min 0 min 0,0 UV-I 18 W/m 5,1 km/h (1 Bft)
02.11.2013 08:48 10,3 C 8,9 C 99 % 1000,6 hPa 0,0 l/m 0 min 0 min 0,0 UV-I 18 W/m 10,3 km/h (2 Bft)
02.11.2013 08:50 10,4 C 8,9 C 99 % 1000,7 hPa 0,0 l/m 0 min 0 min 0,0 UV-I 18 W/m 0,0 km/h (0 Bft)
02.11.2013 08:52 10,4 C 9,4 C 99 % 1000,7 hPa 0,0 l/m 0 min 0 min 0,0 UV-I 18 W/m 2,6 km/h (1 Bft)
02.11.2013 08:54 10,4 C 9,4 C 99 % 1000,7 hPa 0,0 l/m 0 min 0 min 0,0 UV-I 18 W/m 2,6 km/h (1 Bft)
02.11.2013 08:56 10,4 C 9,4 C 99 % 1000,6 hPa 0,0 l/m 0 min 0 min 0,0 UV-I 23 W/m 0,0 km/h (0 Bft)
02.11.2013 08:58 10,4 C 9,4 C 99 % 1000,7 hPa 0,0 l/m 0 min 0 min 0,0 UV-I 21 W/m 2,6 km/h (1 Bft)
02.11.2013 09:00 10,5 C 9,4 C 98 % 1000,8 hPa 0,0 l/m 0 min 0 min 0,0 UV-I 30 W/m 7,7 km/h (2 Bft)
02.11.2013 09:02 10,5 C 9,4 C 98 % 1000,7 hPa 0,0 l/m 0 min 0 min 0,0 UV-I 46 W/m 10,3 km/h (2 Bft)
02.11.2013 09:04 10,5 C 9,4 C 98 % 1000,7 hPa 0,0 l/m 0 min 0 min 0,0 UV-I 56 W/m 12,9 km/h (3 Bft)
02.11.2013 09:06 10,6 C 9,4 C 98 % 1000,7 hPa 0,0 l/m 0 min 0 min 0,0 UV-I 53 W/m 7,7 km/h (2 Bft)
02.11.2013 09:08 10,6 C 9,4 C 98 % 1000,7 hPa 0,0 l/m 0 min 0 min 0,0 UV-I 39 W/m 7,7 km/h (2 Bft)
02.11.2013 09:10 10,6 C 9,4 C 98 % 1000,8 hPa 0,0 l/m 0 min 0 min 0,0 UV-I 33 W/m 10,3 km/h (2 Bft)
02.11.2013 09:12 10,6 C 9,4 C 98 % 1000,8 hPa 0,0 l/m 0 min 0 min 0,0 UV-I 28 W/m 7,7 km/h (2 Bft)
02.11.2013 09:14 10,6 C 9,4 C 98 % 1000,9 hPa 0,0 l/m 0 min 0 min 0,0 UV-I 30 W/m 5,1 km/h (1 Bft)
02.11.2013 09:16 10,6 C 9,4 C 98 % 1000,9 hPa 0,0 l/m 0 min 0 min 0,0 UV-I 33 W/m 2,6 km/h (1 Bft)
02.11.2013 09:18 10,6 C 9,4 C 98 % 1001,0 hPa 0,2 l/m 0 min 0 min 0,0 UV-I 33 W/m 10,3 km/h (2 Bft)
02.11.2013 09:20 10,7 C 9,4 C 98 % 1000,9 hPa 0,0 l/m 0 min 0 min 0,0 UV-I 32 W/m 0,0 km/h (0 Bft)
02.11.2013 09:22 10,7 C 9,4 C 98 % 1000,9 hPa 0,0 l/m 0 min 0 min 0,0 UV-I 35 W/m 2,6 km/h (1 Bft)
02.11.2013 09:24 10,7 C 9,4 C 98 % 1000,9 hPa 0,0 l/m 0 min 0 min 0,0 UV-I 44 W/m 0,0 km/h (0 Bft)
02.11.2013 09:26 10,7 C 9,4 C 98 % 1000,8 hPa 0,0 l/m 0 min 0 min 0,0 UV-I 49 W/m 5,1 km/h (1 Bft)
02.11.2013 09:28 10,7 C 9,4 C 98 % 1000,9 hPa 0,0 l/m 0 min 0 min 0,0 UV-I 49 W/m 10,3 km/h (2 Bft)
02.11.2013 09:30 10,7 C 9,4 C 98 % 1000,8 hPa 0,0 l/m 0 min 0 min 0,0 UV-I 58 W/m 7,7 km/h (2 Bft)
02.11.2013 09:32 10,7 C 9,4 C 98 % 1000,8 hPa 0,0 l/m 0 min 0 min 0,0 UV-I 49 W/m 2,6 km/h (1 Bft)
02.11.2013 09:34 10,8 C 9,4 C 98 % 1000,8 hPa 0,0 l/m 0 min 0 min 0,0 UV-I 39 W/m 5,1 km/h (1 Bft)
02.11.2013 09:36 10,8 C 9,4 C 98 % 1000,9 hPa 0,0 l/m 0 min 0 min 0,0 UV-I 35 W/m 0,0 km/h (0 Bft)
02.11.2013 09:38 10,8 C 9,4 C 98 % 1000,9 hPa 0,0 l/m 0 min 0 min 0,0 UV-I 26 W/m 0,0 km/h (0 Bft)
02.11.2013 09:40 10,8 C 9,4 C 98 % 1000,8 hPa 0,0 l/m 0 min 0 min 0,0 UV-I 23 W/m 7,7 km/h (2 Bft)
02.11.2013 09:42 10,8 C 9,4 C 98 % 1000,8 hPa 0,0 l/m 0 min 0 min 0,0 UV-I 19 W/m 0,0 km/h (0 Bft)
02.11.2013 09:44 10,8 C 9,4 C 98 % 1000,9 hPa 0,0 l/m 0 min 0 min 0,0 UV-I 19 W/m 10,3 km/h (2 Bft)
02.11.2013 09:46 10,8 C 9,4 C 98 % 1000,9 hPa 0,0 l/m 0 min 0 min 0,0 UV-I 35 W/m 2,6 km/h (1 Bft)
02.11.2013 09:48 10,9 C 10,0 C 98 % 1000,8 hPa 0,0 l/m 0 min 0 min 0,0 UV-I 56 W/m 0,0 km/h (0 Bft)
02.11.2013 09:50 10,9 C 10,0 C 98 % 1000,8 hPa 0,0 l/m 0 min 0 min 0,0 UV-I 63 W/m 0,0 km/h (0 Bft)
02.11.2013 09:52 10,9 C 10,0 C 98 % 1000,9 hPa 0,0 l/m 0 min 0 min 0,0 UV-I 84 W/m 0,0 km/h (0 Bft)
02.11.2013 09:54 11,0 C 10,0 C 98 % 1001,0 hPa 0,0 l/m 0 min 0 min 0,0 UV-I 62 W/m 0,0 km/h (0 Bft)
02.11.2013 09:56 11,0 C 10,0 C 98 % 1001,0 hPa 0,0 l/m 0 min 0 min 0,0 UV-I 35 W/m 0,0 km/h (0 Bft)
02.11.2013 09:58 11,1 C 10,0 C 98 % 1001,0 hPa 0,0 l/m 0 min 0 min 0,0 UV-I 26 W/m 10,3 km/h (2 Bft)
02.11.2013 10:00 11,1 C 10,0 C 98 % 1001,0 hPa 0,2 l/m 0 min 0 min 0,0 UV-I 26 W/m 5,1 km/h (1 Bft)
02.11.2013 10:02 11,1 C 10,0 C 98 % 1001,0 hPa 0,2 l/m 0 min 0 min 0,0 UV-I 28 W/m 0,0 km/h (0 Bft)
02.11.2013 10:04 11,1 C 10,0 C 98 % 1001,0 hPa 0,2 l/m 0 min 0 min 0,0 UV-I 33 W/m 0,0 km/h (0 Bft)
02.11.2013 10:06 11,1 C 10,0 C 98 % 1001,0 hPa 0,0 l/m 0 min 0 min 0,0 UV-I 33 W/m 0,0 km/h (0 Bft)
02.11.2013 10:08 11,1 C 10,0 C 98 % 1001,1 hPa 0,0 l/m 0 min 0 min 0,0 UV-I 28 W/m 0,0 km/h (0 Bft)
02.11.2013 10:10 11,1 C 10,0 C 98 % 1001,2 hPa 0,0 l/m 0 min 0 min 0,0 UV-I 32 W/m 0,0 km/h (0 Bft)
02.11.2013 10:12 11,1 C 10,0 C 98 % 1001,2 hPa 0,0 l/m 0 min 0 min 0,0 UV-I 33 W/m 0,0 km/h (0 Bft)
02.11.2013 10:14 11,1 C 10,0 C 98 % 1001,1 hPa 0,0 l/m 0 min 0 min 0,0 UV-I 33 W/m 0,0 km/h (0 Bft)
02.11.2013 10:16 11,1 C 10,0 C 98 % 1001,2 hPa 0,0 l/m 0 min 0 min 0,0 UV-I 28 W/m 0,0 km/h (0 Bft)
02.11.2013 10:18 11,1 C 10,0 C 98 % 1001,1 hPa 0,0 l/m 0 min 0 min 0,0 UV-I 37 W/m 0,0 km/h (0 Bft)
02.11.2013 10:20 11,2 C 10,0 C 98 % 1001,2 hPa 0,0 l/m 0 min 0 min 0,0 UV-I 37 W/m 0,0 km/h (0 Bft)
02.11.2013 10:22 11,2 C 10,0 C 98 % 1001,2 hPa 0,0 l/m 0 min 0 min 0,0 UV-I 37 W/m 0,0 km/h (0 Bft)
02.11.2013 10:24 11,2 C 10,0 C 98 % 1001,1 hPa 0,0 l/m 0 min 0 min 0,0 UV-I 40 W/m 0,0 km/h (0 Bft)
02.11.2013 10:26 11,2 C 10,0 C 98 % 1001,2 hPa 0,0 l/m 0 min 0 min 0,0 UV-I 37 W/m 0,0 km/h (0 Bft)
02.11.2013 10:28 11,2 C 10,0 C 98 % 1001,2 hPa 0,0 l/m 0 min 0 min 0,0 UV-I 35 W/m 0,0 km/h (0 Bft)
02.11.2013 10:30 11,2 C 10,0 C 98 % 1001,3 hPa 0,0 l/m 0 min 0 min 0,0 UV-I 37 W/m 5,1 km/h (1 Bft)
02.11.2013 10:32 11,2 C 10,0 C 98 % 1001,3 hPa 0,0 l/m 0 min 0 min 0,0 UV-I 40 W/m 0,0 km/h (0 Bft)
02.11.2013 10:34 11,2 C 10,0 C 98 % 1001,3 hPa 0,0 l/m 0 min 0 min 0,0 UV-I 44 W/m 0,0 km/h (0 Bft)
02.11.2013 10:36 11,2 C 10,0 C 98 % 1001,2 hPa 0,0 l/m 0 min 0 min 0,0 UV-I 42 W/m 0,0 km/h (0 Bft)
02.11.2013 10:38 11,2 C 10,0 C 98 % 1001,3 hPa 0,0 l/m 0 min 0 min 0,0 UV-I 44 W/m 0,0 km/h (0 Bft)
02.11.2013 10:40 11,3 C 10,0 C 98 % 1001,3 hPa 0,0 l/m 0 min 0 min 0,0 UV-I 49 W/m 5,1 km/h (1 Bft)
02.11.2013 10:42 11,3 C 10,0 C 98 % 1001,3 hPa 0,0 l/m 0 min 0 min 0,0 UV-I 53 W/m 0,0 km/h (0 Bft)
02.11.2013 10:44 11,3 C 10,0 C 98 % 1001,3 hPa 0,0 l/m 0 min 0 min 0,0 UV-I 46 W/m 0,0 km/h (0 Bft)
02.11.2013 10:46 11,3 C 10,0 C 98 % 1001,4 hPa 0,0 l/m 0 min 0 min 0,0 UV-I 49 W/m 0,0 km/h (0 Bft)
02.11.2013 10:48 11,3 C 10,0 C 98 % 1001,4 hPa 0,0 l/m 0 min 0 min 0,0 UV-I 53 W/m 0,0 km/h (0 Bft)
02.11.2013 10:50 11,3 C 10,0 C 98 % 1001,4 hPa 0,0 l/m 0 min 0 min 0,0 UV-I 42 W/m 0,0 km/h (0 Bft)
02.11.2013 10:52 11,4 C 10,6 C 98 % 1001,4 hPa 0,0 l/m 0 min 0 min 0,0 UV-I 53 W/m 0,0 km/h (0 Bft)
02.11.2013 10:54 11,4 C 10,6 C 98 % 1001,5 hPa 0,0 l/m 0 min 0 min 0,0 UV-I 54 W/m 0,0 km/h (0 Bft)
02.11.2013 10:56 11,4 C 10,6 C 98 % 1001,5 hPa 0,0 l/m 0 min 0 min 0,0 UV-I 44 W/m 0,0 km/h (0 Bft)
02.11.2013 10:58 11,4 C 10,6 C 98 % 1001,6 hPa 0,0 l/m 0 min 0 min 0,0 UV-I 39 W/m 5,1 km/h (1 Bft)
02.11.2013 11:00 11,4 C 10,6 C 98 % 1001,5 hPa 0,0 l/m 0 min 0 min 0,0 UV-I 49 W/m 0,0 km/h (0 Bft)
02.11.2013 11:02 11,4 C 10,6 C 98 % 1001,5 hPa 0,0 l/m 0 min 0 min 0,0 UV-I 56 W/m 0,0 km/h (0 Bft)
02.11.2013 11:04 11,4 C 10,6 C 98 % 1001,4 hPa 0,0 l/m 0 min 0 min 0,0 UV-I 39 W/m 0,0 km/h (0 Bft)
02.11.2013 11:06 11,4 C 10,6 C 98 % 1001,4 hPa 0,0 l/m 0 min 0 min 0,0 UV-I 28 W/m 0,0 km/h (0 Bft)
02.11.2013 11:08 11,4 C 10,0 C 98 % 1001,5 hPa 0,0 l/m 0 min 0 min 0,0 UV-I 28 W/m 0,0 km/h (0 Bft)
02.11.2013 11:10 11,4 C 10,0 C 98 % 1001,5 hPa 0,0 l/m 0 min 0 min 0,0 UV-I 28 W/m 0,0 km/h (0 Bft)
02.11.2013 11:12 11,4 C 10,6 C 98 % 1001,5 hPa 0,0 l/m 0 min 0 min 0,0 UV-I 28 W/m 0,0 km/h (0 Bft)
02.11.2013 11:14 11,4 C 10,6 C 98 % 1001,6 hPa 0,0 l/m 0 min 0 min 0,0 UV-I 32 W/m 0,0 km/h (0 Bft)
02.11.2013 11:16 11,4 C 10,6 C 98 % 1001,6 hPa 0,0 l/m 0 min 0 min 0,0 UV-I 30 W/m 0,0 km/h (0 Bft)
02.11.2013 11:18 11,4 C 10,6 C 98 % 1001,6 hPa 0,0 l/m 0 min 0 min 0,0 UV-I 40 W/m 0,0 km/h (0 Bft)
02.11.2013 11:20 11,4 C 10,6 C 98 % 1001,6 hPa 0,0 l/m 0 min 0 min 0,0 UV-I 39 W/m 0,0 km/h (0 Bft)
02.11.2013 11:22 11,5 C 10,6 C 98 % 1001,6 hPa 0,0 l/m 0 min 0 min 0,0 UV-I 30 W/m 0,0 km/h (0 Bft)
02.11.2013 11:24 11,5 C 10,6 C 98 % 1001,6 hPa 0,0 l/m 0 min 0 min 0,0 UV-I 32 W/m 0,0 km/h (0 Bft)
02.11.2013 11:26 11,5 C 10,6 C 98 % 1001,6 hPa 0,0 l/m 0 min 0 min 0,0 UV-I 49 W/m 0,0 km/h (0 Bft)
02.11.2013 11:28 11,5 C 10,6 C 98 % 1001,6 hPa 0,0 l/m 0 min 0 min 0,0 UV-I 97 W/m 0,0 km/h (0 Bft)
02.11.2013 11:30 11,6 C 10,6 C 98 % 1001,5 hPa 0,0 l/m 0 min 0 min 0,0 UV-I 105 W/m 0,0 km/h (0 Bft)
02.11.2013 11:32 11,7 C 10,6 C 98 % 1001,5 hPa 0,0 l/m 0 min 0 min 0,0 UV-I 91 W/m 0,0 km/h (0 Bft)
02.11.2013 11:34 11,7 C 10,6 C 98 % 1001,5 hPa 0,0 l/m 0 min 0 min 0,0 UV-I 95 W/m 0,0 km/h (0 Bft)
02.11.2013 11:36 11,7 C 10,6 C 98 % 1001,5 hPa 0,0 l/m 0 min 0 min 0,0 UV-I 91 W/m 0,0 km/h (0 Bft)
02.11.2013 11:38 11,7 C 11,1 C 98 % 1001,4 hPa 0,0 l/m 0 min 0 min 0,0 UV-I 120 W/m 0,0 km/h (0 Bft)
02.11.2013 11:40 11,9 C 11,1 C 98 % 1001,3 hPa 0,0 l/m 0 min 0 min 0,0 UV-I 151 W/m 0,0 km/h (0 Bft)
02.11.2013 11:42 11,9 C 11,1 C 98 % 1001,4 hPa 0,0 l/m 0 min 0 min 0,0 UV-I 141 W/m 0,0 km/h (0 Bft)
02.11.2013 11:44 11,9 C 11,1 C 98 % 1001,4 hPa 0,0 l/m 0 min 0 min 0,0 UV-I 176 W/m 0,0 km/h (0 Bft)
02.11.2013 11:46 12,0 C 11,7 C 98 % 1001,4 hPa 0,0 l/m 0 min 0 min 0,0 UV-I 144 W/m 0,0 km/h (0 Bft)
02.11.2013 11:48 12,1 C 11,7 C 98 % 1001,3 hPa 0,0 l/m 0 min 0 min 0,0 UV-I 155 W/m 0,0 km/h (0 Bft)
02.11.2013 11:50 12,2 C 11,7 C 98 % 1001,4 hPa 0,0 l/m 0 min 0 min 0,0 UV-I 134 W/m 0,0 km/h (0 Bft)
02.11.2013 11:52 12,2 C 11,7 C 98 % 1001,4 hPa 0,0 l/m 0 min 0 min 0,0 UV-I 114 W/m 0,0 km/h (0 Bft)
02.11.2013 11:54 12,2 C 11,7 C 98 % 1001,3 hPa 0,0 l/m 0 min 0 min 0,0 UV-I 114 W/m 0,0 km/h (0 Bft)
02.11.2013 11:56 12,2 C 11,7 C 98 % 1001,3 hPa 0,0 l/m 0 min 0 min 0,0 UV-I 148 W/m 0,0 km/h (0 Bft)
02.11.2013 11:58 12,3 C 11,7 C 98 % 1001,3 hPa 0,0 l/m 0 min 0 min 0,0 UV-I 148 W/m 0,0 km/h (0 Bft)
02.11.2013 12:00 12,3 C 11,7 C 98 % 1001,2 hPa 0,0 l/m 0 min 0 min 0,0 UV-I 142 W/m 0,0 km/h (0 Bft)
02.11.2013 12:02 12,3 C 11,7 C 98 % 1001,2 hPa 0,0 l/m 0 min 0 min 0,0 UV-I 120 W/m 7,7 km/h (2 Bft)
02.11.2013 12:06 12,4 C 11,7 C 98 % 1001,3 hPa 0,0 l/m 0 min 0 min 0,0 UV-I 132 W/m 0,0 km/h (0 Bft)
02.11.2013 12:08 12,4 C 11,7 C 98 % 1001,3 hPa 0,0 l/m 0 min 0 min 0,0 UV-I 109 W/m 0,0 km/h (0 Bft)
02.11.2013 12:10 12,4 C 11,7 C 98 % 1001,3 hPa 0,0 l/m 0 min 0 min 0,0 UV-I 95 W/m 0,0 km/h (0 Bft)
02.11.2013 12:12 12,6 C 11,7 C 98 % 1001,3 hPa 0,0 l/m 0 min 0 min 0,0 UV-I 105 W/m 0,0 km/h (0 Bft)
02.11.2013 12:14 12,7 C 11,7 C 98 % 1001,3 hPa 0,0 l/m 0 min 0 min 0,0 UV-I 116 W/m 0,0 km/h (0 Bft)
02.11.2013 12:16 12,7 C 11,7 C 98 % 1001,3 hPa 0,0 l/m 0 min 0 min 0,0 UV-I 123 W/m 0,0 km/h (0 Bft)
02.11.2013 12:18 12,7 C 11,7 C 98 % 1001,3 hPa 0,0 l/m 0 min 0 min 0,0 UV-I 120 W/m 0,0 km/h (0 Bft)
02.11.2013 12:20 12,6 C 11,7 C 98 % 1001,3 hPa 0,0 l/m 0 min 0 min 0,0 UV-I 120 W/m 0,0 km/h (0 Bft)
02.11.2013 12:22 12,6 C 11,7 C 98 % 1001,3 hPa 0,0 l/m 0 min 0 min 0,0 UV-I 109 W/m 0,0 km/h (0 Bft)
02.11.2013 12:24 12,6 C 11,7 C 98 % 1001,3 hPa 0,0 l/m 0 min 0 min 0,0 UV-I 116 W/m 2,6 km/h (1 Bft)
02.11.2013 12:26 12,7 C 11,7 C 98 % 1001,2 hPa 0,0 l/m 0 min 0 min 0,0 UV-I 111 W/m 0,0 km/h (0 Bft)
02.11.2013 12:28 12,7 C 11,7 C 98 % 1001,2 hPa 0,0 l/m 0 min 0 min 0,0 UV-I 83 W/m 5,1 km/h (1 Bft)
02.11.2013 12:30 12,7 C 11,7 C 98 % 1001,2 hPa 0,0 l/m 0 min 0 min 0,0 UV-I 76 W/m 5,1 km/h (1 Bft)
02.11.2013 12:32 12,7 C 11,7 C 98 % 1001,2 hPa 0,0 l/m 0 min 0 min 0,0 UV-I 81 W/m 0,0 km/h (0 Bft)
02.11.2013 12:34 12,8 C 11,7 C 98 % 1001,2 hPa 0,0 l/m 0 min 0 min 0,0 UV-I 76 W/m 0,0 km/h (0 Bft)
02.11.2013 12:36 12,8 C 11,7 C 98 % 1001,2 hPa 0,0 l/m 0 min 0 min 0,0 UV-I 56 W/m 0,0 km/h (0 Bft)
02.11.2013 12:38 12,7 C 11,7 C 98 % 1001,2 hPa 0,0 l/m 0 min 0 min 0,0 UV-I 60 W/m 0,0 km/h (0 Bft)
02.11.2013 12:40 12,7 C 11,7 C 98 % 1001,2 hPa 0,0 l/m 0 min 0 min 0,0 UV-I 47 W/m 0,0 km/h (0 Bft)
02.11.2013 12:42 12,8 C 11,7 C 98 % 1001,2 hPa 0,0 l/m 0 min 0 min 0,0 UV-I 53 W/m 0,0 km/h (0 Bft)
02.11.2013 12:44 12,8 C 11,7 C 97 % 1001,2 hPa 0,0 l/m 0 min 0 min 0,0 UV-I 53 W/m 0,0 km/h (0 Bft)
02.11.2013 12:46 12,7 C 11,7 C 97 % 1001,2 hPa 0,0 l/m 0 min 0 min 0,0 UV-I 40 W/m 0,0 km/h (0 Bft)
02.11.2013 12:48 12,7 C 11,1 C 97 % 1001,2 hPa 0,0 l/m 0 min 0 min 0,0 UV-I 53 W/m 0,0 km/h (0 Bft)
02.11.2013 12:50 12,7 C 11,7 C 97 % 1001,2 hPa 0,0 l/m 0 min 0 min 0,0 UV-I 53 W/m 0,0 km/h (0 Bft)
02.11.2013 12:52 12,7 C 11,7 C 97 % 1001,2 hPa 0,0 l/m 0 min 0 min 0,0 UV-I 54 W/m 0,0 km/h (0 Bft)
02.11.2013 12:54 12,8 C 11,7 C 97 % 1001,2 hPa 0,0 l/m 0 min 0 min 0,0 UV-I 51 W/m 0,0 km/h (0 Bft)
02.11.2013 12:56 12,7 C 11,7 C 97 % 1001,2 hPa 0,0 l/m 0 min 0 min 0,0 UV-I 39 W/m 0,0 km/h (0 Bft)
02.11.2013 12:58 12,7 C 11,7 C 97 % 1001,2 hPa 0,0 l/m 0 min 0 min 0,0 UV-I 40 W/m 7,7 km/h (2 Bft)
02.11.2013 13:00 12,7 C 11,7 C 97 % 1001,2 hPa 0,0 l/m 0 min 0 min 0,0 UV-I 62 W/m 0,0 km/h (0 Bft)
02.11.2013 13:02 12,7 C 11,7 C 97 % 1001,2 hPa 0,0 l/m 0 min 0 min 0,0 UV-I 74 W/m 0,0 km/h (0 Bft)
02.11.2013 13:04 12,7 C 11,7 C 97 % 1001,2 hPa 0,0 l/m 0 min 0 min 0,0 UV-I 69 W/m 0,0 km/h (0 Bft)
02.11.2013 13:06 12,7 C 11,7 C 97 % 1001,2 hPa 0,0 l/m 0 min 0 min 0,0 UV-I 60 W/m 0,0 km/h (0 Bft)
02.11.2013 13:08 12,7 C 11,7 C 97 % 1001,2 hPa 0,0 l/m 0 min 0 min 0,0 UV-I 70 W/m 0,0 km/h (0 Bft)
02.11.2013 13:10 12,7 C 11,7 C 97 % 1001,2 hPa 0,0 l/m 0 min 0 min 0,0 UV-I 74 W/m 0,0 km/h (0 Bft)
02.11.2013 13:12 12,7 C 11,7 C 97 % 1001,2 hPa 0,0 l/m 0 min 0 min 0,0 UV-I 69 W/m 0,0 km/h (0 Bft)
02.11.2013 13:14 12,7 C 11,7 C 97 % 1001,2 hPa 0,0 l/m 0 min 0 min 0,0 UV-I 56 W/m 0,0 km/h (0 Bft)
02.11.2013 13:16 12,7 C 11,7 C 97 % 1001,2 hPa 0,0 l/m 0 min 0 min 0,0 UV-I 63 W/m 0,0 km/h (0 Bft)
02.11.2013 13:18 12,7 C 11,7 C 97 % 1001,3 hPa 0,0 l/m 0 min 0 min 0,0 UV-I 72 W/m 0,0 km/h (0 Bft)
02.11.2013 13:20 12,7 C 11,7 C 97 % 1001,2 hPa 0,0 l/m 0 min 0 min 0,0 UV-I 91 W/m 0,0 km/h (0 Bft)
02.11.2013 13:22 12,7 C 11,7 C 97 % 1001,2 hPa 0,0 l/m 0 min 0 min 0,0 UV-I 98 W/m 2,6 km/h (1 Bft)
02.11.2013 13:24 12,7 C 11,7 C 97 % 1001,2 hPa 0,0 l/m 0 min 0 min 0,0 UV-I 95 W/m 0,0 km/h (0 Bft)
02.11.2013 13:26 12,7 C 11,7 C 97 % 1001,1 hPa 0,0 l/m 0 min 0 min 0,0 UV-I 113 W/m 0,0 km/h (0 Bft)
02.11.2013 13:28 12,7 C 11,7 C 98 % 1001,1 hPa 0,0 l/m 0 min 0 min 0,0 UV-I 113 W/m 0,0 km/h (0 Bft)
02.11.2013 13:30 12,7 C 11,7 C 98 % 1001,2 hPa 0,0 l/m 0 min 0 min 0,0 UV-I 113 W/m 0,0 km/h (0 Bft)
02.11.2013 13:32 12,8 C 12,2 C 98 % 1001,1 hPa 0,0 l/m 0 min 0 min 0,0 UV-I 107 W/m 0,0 km/h (0 Bft)
02.11.2013 13:34 12,8 C 12,2 C 98 % 1001,2 hPa 0,0 l/m 0 min 0 min 0,0 UV-I 111 W/m 2,6 km/h (1 Bft)
02.11.2013 13:36 12,9 C 12,2 C 98 % 1001,2 hPa 0,0 l/m 0 min 0 min 0,0 UV-I 105 W/m 5,1 km/h (1 Bft)
02.11.2013 13:38 12,8 C 11,7 C 98 % 1001,2 hPa 0,0 l/m 0 min 0 min 0,0 UV-I 105 W/m 2,6 km/h (1 Bft)
02.11.2013 13:40 12,8 C 11,7 C 98 % 1001,2 hPa 0,0 l/m 0 min 0 min 0,0 UV-I 121 W/m 0,0 km/h (0 Bft)
02.11.2013 13:42 12,8 C 12,2 C 98 % 1001,2 hPa 0,0 l/m 0 min 0 min 0,0 UV-I 132 W/m 0,0 km/h (0 Bft)
02.11.2013 13:44 12,8 C 12,2 C 98 % 1001,1 hPa 0,0 l/m 0 min 0 min 0,0 UV-I 130 W/m 0,0 km/h (0 Bft)
02.11.2013 13:46 12,9 C 12,2 C 98 % 1001,1 hPa 0,0 l/m 0 min 0 min 0,0 UV-I 120 W/m 7,7 km/h (2 Bft)
02.11.2013 13:48 12,8 C 11,7 C 98 % 1001,2 hPa 0,0 l/m 0 min 0 min 0,0 UV-I 98 W/m 2,6 km/h (1 Bft)
02.11.2013 13:50 12,8 C 11,7 C 98 % 1001,2 hPa 0,0 l/m 0 min 0 min 0,0 UV-I 76 W/m 0,0 km/h (0 Bft)
02.11.2013 13:52 12,8 C 11,7 C 98 % 1001,1 hPa 0,0 l/m 0 min 0 min 0,0 UV-I 60 W/m 0,0 km/h (0 Bft)
02.11.2013 13:54 12,8 C 11,7 C 98 % 1001,1 hPa 0,0 l/m 0 min 0 min 0,0 UV-I 56 W/m 7,7 km/h (2 Bft)
02.11.2013 13:56 12,8 C 11,7 C 98 % 1001,2 hPa 0,0 l/m 0 min 0 min 0,0 UV-I 63 W/m 2,6 km/h (1 Bft)
02.11.2013 13:58 12,8 C 11,7 C 98 % 1001,1 hPa 0,0 l/m 0 min 0 min 0,0 UV-I 67 W/m 0,0 km/h (0 Bft)
02.11.2013 14:00 12,7 C 11,7 C 98 % 1001,2 hPa 0,0 l/m 0 min 0 min 0,0 UV-I 67 W/m 0,0 km/h (0 Bft)
02.11.2013 14:02 12,8 C 11,7 C 98 % 1001,2 hPa 0,0 l/m 0 min 0 min 0,0 UV-I 70 W/m 0,0 km/h (0 Bft)
02.11.2013 14:04 12,8 C 11,7 C 98 % 1001,1 hPa 0,0 l/m 0 min 0 min 0,0 UV-I 65 W/m 0,0 km/h (0 Bft)
02.11.2013 14:06 12,8 C 11,7 C 98 % 1001,1 hPa 0,0 l/m 0 min 0 min 0,0 UV-I 65 W/m 0,0 km/h (0 Bft)
02.11.2013 14:08 12,8 C 11,7 C 98 % 1001,1 hPa 0,0 l/m 0 min 0 min 0,0 UV-I 69 W/m 0,0 km/h (0 Bft)
02.11.2013 14:10 12,9 C 11,7 C 98 % 1001,1 hPa 0,0 l/m 0 min 0 min 0,0 UV-I 69 W/m 0,0 km/h (0 Bft)
02.11.2013 14:12 12,9 C 11,7 C 98 % 1001,0 hPa 0,0 l/m 0 min 0 min 0,0 UV-I 65 W/m 0,0 km/h (0 Bft)
02.11.2013 14:14 12,9 C 11,7 C 98 % 1001,0 hPa 0,0 l/m 0 min 0 min 0,0 UV-I 65 W/m 0,0 km/h (0 Bft)
02.11.2013 14:16 12,9 C 11,7 C 98 % 1001,0 hPa 0,0 l/m 0 min 0 min 0,0 UV-I 72 W/m 0,0 km/h (0 Bft)
02.11.2013 14:18 12,9 C 11,7 C 98 % 1001,0 hPa 0,0 l/m 0 min 0 min 0,0 UV-I 65 W/m 0,0 km/h (0 Bft)
02.11.2013 14:20 12,9 C 11,7 C 98 % 1001,1 hPa 0,0 l/m 0 min 0 min 0,0 UV-I 62 W/m 5,1 km/h (1 Bft)
02.11.2013 14:22 12,9 C 11,7 C 98 % 1001,1 hPa 0,0 l/m 0 min 0 min 0,0 UV-I 63 W/m 7,7 km/h (2 Bft)
02.11.2013 14:24 12,9 C 11,7 C 98 % 1001,1 hPa 0,0 l/m 0 min 0 min 0,0 UV-I 53 W/m 7,7 km/h (2 Bft)
02.11.2013 14:26 12,9 C 11,7 C 98 % 1001,1 hPa 0,0 l/m 0 min 0 min 0,0 UV-I 60 W/m 2,6 km/h (1 Bft)
02.11.2013 14:28 12,8 C 11,7 C 98 % 1001,1 hPa 0,0 l/m 0 min 0 min 0,0 UV-I 65 W/m 0,0 km/h (0 Bft)
02.11.2013 14:30 12,9 C 11,7 C 98 % 1001,1 hPa 0,0 l/m 0 min 0 min 0,0 UV-I 79 W/m 0,0 km/h (0 Bft)
02.11.2013 14:32 12,9 C 12,2 C 98 % 1001,0 hPa 0,0 l/m 0 min 0 min 0,0 UV-I 123 W/m 0,0 km/h (0 Bft)
02.11.2013 14:34 13,1 C 12,2 C 98 % 1000,9 hPa 0,0 l/m 0 min 0 min 0,0 UV-I 141 W/m 0,0 km/h (0 Bft)
02.11.2013 14:36 13,2 C 12,2 C 98 % 1000,9 hPa 0,0 l/m 0 min 0 min 0,0 UV-I 160 W/m 0,0 km/h (0 Bft)
02.11.2013 14:38 13,2 C 12,2 C 98 % 1000,9 hPa 0,0 l/m 2 min 0 min 0,0 UV-I 169 W/m 0,0 km/h (0 Bft)
02.11.2013 14:40 13,3 C 12,2 C 98 % 1000,8 hPa 0,0 l/m 0 min 0 min 0,0 UV-I 128 W/m 5,1 km/h (1 Bft)
02.11.2013 14:42 13,3 C 12,2 C 98 % 1000,8 hPa 0,0 l/m 0 min 0 min 0,0 UV-I 93 W/m 0,0 km/h (0 Bft)
02.11.2013 14:44 13,3 C 12,2 C 98 % 1000,8 hPa 0,0 l/m 0 min 0 min 0,0 UV-I 91 W/m 0,0 km/h (0 Bft)
02.11.2013 14:46 13,3 C 12,2 C 98 % 1000,8 hPa 0,0 l/m 0 min 0 min 0,0 UV-I 102 W/m 0,0 km/h (0 Bft)
02.11.2013 14:48 13,3 C 12,2 C 98 % 1000,9 hPa 0,0 l/m 0 min 0 min 0,0 UV-I 95 W/m 0,0 km/h (0 Bft)
02.11.2013 14:50 13,3 C 12,2 C 98 % 1000,9 hPa 0,0 l/m 0 min 0 min 0,0 UV-I 79 W/m 0,0 km/h (0 Bft)
02.11.2013 14:52 13,4 C 12,2 C 98 % 1000,9 hPa 0,0 l/m 0 min 0 min 0,0 UV-I 63 W/m 0,0 km/h (0 Bft)
02.11.2013 14:54 13,4 C 12,2 C 98 % 1001,0 hPa 0,0 l/m 0 min 0 min 0,0 UV-I 58 W/m 0,0 km/h (0 Bft)
02.11.2013 14:56 13,4 C 12,2 C 98 % 1001,0 hPa 0,0 l/m 0 min 0 min 0,0 UV-I 65 W/m 2,6 km/h (1 Bft)
02.11.2013 14:58 13,4 C 12,2 C 98 % 1001,0 hPa 0,0 l/m 0 min 0 min 0,0 UV-I 53 W/m 0,0 km/h (0 Bft)
02.11.2013 15:00 13,4 C 12,2 C 98 % 1001,0 hPa 0,0 l/m 0 min 0 min 0,0 UV-I 44 W/m 0,0 km/h (0 Bft)
02.11.2013 15:02 13,4 C 12,2 C 98 % 1001,1 hPa 0,0 l/m 0 min 0 min 0,0 UV-I 35 W/m 0,0 km/h (0 Bft)
02.11.2013 15:04 13,3 C 12,2 C 98 % 1001,0 hPa 0,0 l/m 0 min 0 min 0,0 UV-I 32 W/m 7,7 km/h (2 Bft)
02.11.2013 15:06 13,3 C 12,2 C 98 % 1001,1 hPa 0,0 l/m 0 min 0 min 0,0 UV-I 25 W/m 5,1 km/h (1 Bft)
02.11.2013 15:08 13,3 C 11,7 C 98 % 1001,1 hPa 0,0 l/m 0 min 0 min 0,0 UV-I 26 W/m 7,7 km/h (2 Bft)
02.11.2013 15:10 13,3 C 11,7 C 98 % 1001,1 hPa 0,0 l/m 0 min 0 min 0,0 UV-I 28 W/m 0,0 km/h (0 Bft)
02.11.2013 15:12 13,3 C 11,7 C 98 % 1001,2 hPa 0,0 l/m 0 min 0 min 0,0 UV-I 25 W/m 7,7 km/h (2 Bft)
02.11.2013 15:14 13,3 C 11,7 C 98 % 1001,2 hPa 0,0 l/m 0 min 0 min 0,0 UV-I 23 W/m 0,0 km/h (0 Bft)
02.11.2013 15:16 13,2 C 11,7 C 98 % 1001,3 hPa 0,0 l/m 0 min 0 min 0,0 UV-I 21 W/m 0,0 km/h (0 Bft)
02.11.2013 15:18 13,2 C 11,7 C 98 % 1001,2 hPa 0,0 l/m 0 min 0 min 0,0 UV-I 23 W/m 0,0 km/h (0 Bft)
02.11.2013 15:20 13,2 C 11,7 C 98 % 1001,2 hPa 0,0 l/m 0 min 0 min 0,0 UV-I 30 W/m 0,0 km/h (0 Bft)
02.11.2013 15:22 13,2 C 11,7 C 98 % 1001,2 hPa 0,0 l/m 0 min 0 min 0,0 UV-I 30 W/m 0,0 km/h (0 Bft)
02.11.2013 15:24 13,2 C 11,7 C 98 % 1001,3 hPa 0,0 l/m 0 min 0 min 0,0 UV-I 33 W/m 0,0 km/h (0 Bft)
02.11.2013 15:26 13,2 C 11,7 C 98 % 1001,3 hPa 0,0 l/m 0 min 0 min 0,0 UV-I 28 W/m 0,0 km/h (0 Bft)
02.11.2013 15:28 13,2 C 11,7 C 98 % 1001,3 hPa 0,0 l/m 0 min 0 min 0,0 UV-I 35 W/m 0,0 km/h (0 Bft)
02.11.2013 15:30 13,2 C 11,7 C 98 % 1001,3 hPa 0,0 l/m 0 min 0 min 0,0 UV-I 35 W/m 5,1 km/h (1 Bft)
02.11.2013 15:32 13,2 C 11,7 C 98 % 1001,3 hPa 0,0 l/m 0 min 0 min 0,0 UV-I 39 W/m 0,0 km/h (0 Bft)
02.11.2013 15:34 13,2 C 11,7 C 98 % 1001,3 hPa 0,0 l/m 0 min 0 min 0,0 UV-I 26 W/m 0,0 km/h (0 Bft)
02.11.2013 15:36 13,2 C 11,7 C 98 % 1001,4 hPa 0,0 l/m 0 min 0 min 0,0 UV-I 21 W/m 2,6 km/h (1 Bft)
02.11.2013 15:38 13,2 C 11,7 C 98 % 1001,3 hPa 0,0 l/m 0 min 0 min 0,0 UV-I 32 W/m 0,0 km/h (0 Bft)
02.11.2013 15:40 13,2 C 11,7 C 98 % 1001,4 hPa 0,0 l/m 0 min 0 min 0,0 UV-I 26 W/m 0,0 km/h (0 Bft)
02.11.2013 15:42 13,2 C 11,7 C 98 % 1001,4 hPa 0,0 l/m 0 min 0 min 0,0 UV-I 18 W/m 0,0 km/h (0 Bft)
02.11.2013 15:44 13,2 C 11,7 C 98 % 1001,5 hPa 0,0 l/m 0 min 0 min 0,0 UV-I 18 W/m 0,0 km/h (0 Bft)
02.11.2013 15:46 13,2 C 11,7 C 98 % 1001,5 hPa 0,0 l/m 0 min 0 min 0,0 UV-I 19 W/m 0,0 km/h (0 Bft)
02.11.2013 15:48 13,2 C 11,7 C 98 % 1001,4 hPa 0,0 l/m 0 min 2 min 0,0 UV-I 21 W/m 0,0 km/h (0 Bft)
02.11.2013 15:50 13,2 C 11,7 C 98 % 1001,5 hPa 0,0 l/m 0 min 0 min 0,0 UV-I 18 W/m 5,1 km/h (1 Bft)
02.11.2013 15:52 13,2 C 11,7 C 98 % 1001,4 hPa 0,0 l/m 0 min 0 min 0,0 UV-I 21 W/m 0,0 km/h (0 Bft)
02.11.2013 15:54 13,1 C 11,7 C 98 % 1001,5 hPa 0,0 l/m 0 min 0 min 0,0 UV-I 23 W/m 0,0 km/h (0 Bft)
02.11.2013 15:56 13,2 C 11,7 C 98 % 1001,5 hPa 0,0 l/m 0 min 0 min 0,0 UV-I 18 W/m 0,0 km/h (0 Bft)
02.11.2013 15:58 13,2 C 11,7 C 98 % 1001,5 hPa 0,0 l/m 0 min 0 min 0,0 UV-I 19 W/m 0,0 km/h (0 Bft)
02.11.2013 16:00 13,2 C 11,7 C 98 % 1001,5 hPa 0,0 l/m 0 min 0 min 0,0 UV-I 18 W/m 0,0 km/h (0 Bft)
02.11.2013 16:02 13,1 C 11,7 C 98 % 1001,5 hPa 0,0 l/m 0 min 0 min 0,0 UV-I 12 W/m 0,0 km/h (0 Bft)
02.11.2013 16:04 13,1 C 11,7 C 98 % 1001,5 hPa 0,0 l/m 0 min 0 min 0,0 UV-I 12 W/m 0,0 km/h (0 Bft)
02.11.2013 16:06 13,1 C 11,7 C 98 % 1001,5 hPa 0,0 l/m 0 min 0 min 0,0 UV-I 11 W/m 0,0 km/h (0 Bft)
02.11.2013 16:08 13,1 C 11,7 C 98 % 1001,5 hPa 0,0 l/m 0 min 0 min 0,0 UV-I 9 W/m 0,0 km/h (0 Bft)
02.11.2013 16:10 13,1 C 11,7 C 98 % 1001,5 hPa 0,0 l/m 0 min 0 min 0,0 UV-I 11 W/m 2,6 km/h (1 Bft)
02.11.2013 16:12 13,1 C 11,7 C 98 % 1001,5 hPa 0,0 l/m 0 min 0 min 0,0 UV-I 12 W/m 2,6 km/h (1 Bft)
02.11.2013 16:14 13,1 C 11,7 C 98 % 1001,5 hPa 0,0 l/m 0 min 0 min 0,0 UV-I 18 W/m 2,6 km/h (1 Bft)
02.11.2013 16:16 13,1 C 11,7 C 98 % 1001,5 hPa 0,0 l/m 0 min 0 min 0,0 UV-I 18 W/m 5,1 km/h (1 Bft)
02.11.2013 16:18 13,1 C 11,7 C 98 % 1001,5 hPa 0,0 l/m 0 min 0 min 0,0 UV-I 16 W/m 0,0 km/h (0 Bft)
02.11.2013 16:20 13,1 C 11,7 C 98 % 1001,6 hPa 0,0 l/m 0 min 2 min 0,0 UV-I 18 W/m 0,0 km/h (0 Bft)
02.11.2013 16:22 13,1 C 11,7 C 98 % 1001,5 hPa 0,0 l/m 0 min 2 min 0,0 UV-I 23 W/m 0,0 km/h (0 Bft)
02.11.2013 16:24 13,1 C 11,7 C 98 % 1001,5 hPa 0,0 l/m 0 min 2 min 0,0 UV-I 19 W/m 5,1 km/h (1 Bft)
02.11.2013 16:26 13,1 C 11,7 C 98 % 1001,6 hPa 0,0 l/m 0 min 2 min 0,0 UV-I 16 W/m 12,9 km/h (3 Bft)
02.11.2013 16:28 13,1 C 11,7 C 98 % 1001,7 hPa 0,0 l/m 0 min 2 min 0,0 UV-I 12 W/m 7,7 km/h (2 Bft)
02.11.2013 16:30 13,1 C 11,7 C 98 % 1001,7 hPa 0,0 l/m 0 min 2 min 0,0 UV-I 11 W/m 7,7 km/h (2 Bft)
02.11.2013 16:32 13,0 C 11,7 C 98 % 1001,7 hPa 0,0 l/m 0 min 0 min 0,0 UV-I 9 W/m 5,1 km/h (1 Bft)
02.11.2013 16:34 13,0 C 11,7 C 98 % 1001,8 hPa 0,0 l/m 0 min 0 min 0,0 UV-I 7 W/m 7,7 km/h (2 Bft)
02.11.2013 16:36 13,0 C 11,7 C 98 % 1001,9 hPa 0,0 l/m 0 min 2 min 0,0 UV-I 0 W/m 5,1 km/h (1 Bft)
02.11.2013 16:38 13,0 C 11,7 C 98 % 1001,9 hPa 0,0 l/m 0 min 2 min 0,0 UV-I 0 W/m 5,1 km/h (1 Bft)
02.11.2013 16:40 13,0 C 11,7 C 98 % 1002,0 hPa 0,2 l/m 0 min 2 min 0,0 UV-I 0 W/m 7,7 km/h (2 Bft)
02.11.2013 16:42 13,0 C 11,7 C 98 % 1002,0 hPa 0,0 l/m 0 min 2 min 0,0 UV-I 0 W/m 7,7 km/h (2 Bft)
02.11.2013 16:44 13,0 C 11,7 C 98 % 1001,9 hPa 0,0 l/m 0 min 2 min 0,0 UV-I 5 W/m 15,4 km/h (3 Bft)
02.11.2013 16:46 12,9 C 11,7 C 98 % 1002,0 hPa 0,2 l/m 0 min 2 min 0,0 UV-I 0 W/m 12,9 km/h (3 Bft)
02.11.2013 16:48 12,9 C 11,7 C 98 % 1002,0 hPa 0,0 l/m 0 min 2 min 0,0 UV-I 0 W/m 12,9 km/h (3 Bft)
02.11.2013 16:50 12,9 C 11,7 C 98 % 1002,1 hPa 0,0 l/m 0 min 2 min 0,0 UV-I 0 W/m 10,3 km/h (2 Bft)
02.11.2013 16:52 12,8 C 11,7 C 98 % 1002,2 hPa 0,0 l/m 0 min 2 min 0,0 UV-I 0 W/m 12,9 km/h (3 Bft)
02.11.2013 16:54 12,8 C 11,7 C 98 % 1002,2 hPa 0,0 l/m 0 min 2 min 0,0 UV-I 0 W/m 7,7 km/h (2 Bft)
02.11.2013 16:56 12,8 C 11,1 C 98 % 1002,3 hPa 0,0 l/m 0 min 2 min 0,0 UV-I 0 W/m 12,9 km/h (3 Bft)
02.11.2013 16:58 12,7 C 11,1 C 98 % 1002,4 hPa 0,0 l/m 0 min 2 min 0,0 UV-I 0 W/m 15,4 km/h (3 Bft)
02.11.2013 17:00 12,7 C 11,1 C 98 % 1002,4 hPa 0,2 l/m 0 min 2 min 0,0 UV-I 0 W/m 25,7 km/h (4 Bft)
02.11.2013 17:02 12,6 C 11,1 C 98 % 1002,5 hPa 0,0 l/m 0 min 2 min 0,0 UV-I 0 W/m 25,7 km/h (4 Bft)
02.11.2013 17:04 12,5 C 11,1 C 98 % 1002,5 hPa 0,0 l/m 0 min 2 min 0,0 UV-I 0 W/m 18,0 km/h (3 Bft)
02.11.2013 17:06 12,4 C 11,1 C 98 % 1002,5 hPa 0,0 l/m 0 min 0 min 0,0 UV-I 0 W/m 18,0 km/h (3 Bft)
02.11.2013 17:08 12,4 C 11,1 C 98 % 1002,5 hPa 0,0 l/m 0 min 0 min 0,0 UV-I 0 W/m 15,4 km/h (3 Bft)
02.11.2013 17:10 12,3 C 10,6 C 98 % 1002,3 hPa 0,0 l/m 0 min 0 min 0,0 UV-I 0 W/m 7,7 km/h (2 Bft)
02.11.2013 17:12 12,3 C 10,6 C 98 % 1002,1 hPa 0,0 l/m 0 min 0 min 0,0 UV-I 0 W/m 15,4 km/h (3 Bft)
02.11.2013 17:14 12,2 C 10,6 C 98 % 1002,1 hPa 0,0 l/m 0 min 0 min 0,0 UV-I 0 W/m 10,3 km/h (2 Bft)
02.11.2013 17:16 12,2 C 10,6 C 98 % 1002,2 hPa 0,0 l/m 0 min 0 min 0,0 UV-I 0 W/m 10,3 km/h (2 Bft)
02.11.2013 17:18 12,2 C 10,6 C 98 % 1002,2 hPa 0,0 l/m 0 min 0 min 0,0 UV-I 0 W/m 2,6 km/h (1 Bft)
02.11.2013 17:20 12,2 C 10,6 C 98 % 1002,2 hPa 0,0 l/m 0 min 0 min 0,0 UV-I 0 W/m 5,1 km/h (1 Bft)
02.11.2013 17:22 12,1 C 10,6 C 98 % 1002,4 hPa 0,0 l/m 0 min 0 min 0,0 UV-I 0 W/m 2,6 km/h (1 Bft)
02.11.2013 17:24 12,1 C 10,6 C 98 % 1002,5 hPa 0,0 l/m 0 min 0 min 0,0 UV-I 0 W/m 2,6 km/h (1 Bft)
02.11.2013 17:26 12,1 C 10,6 C 98 % 1002,5 hPa 0,0 l/m 0 min 0 min 0,0 UV-I 0 W/m 5,1 km/h (1 Bft)
02.11.2013 17:28 12,1 C 10,6 C 98 % 1002,5 hPa 0,0 l/m 0 min 0 min 0,0 UV-I 0 W/m 10,3 km/h (2 Bft)
02.11.2013 17:30 12,0 C 10,6 C 98 % 1002,5 hPa 0,0 l/m 0 min 0 min 0,0 UV-I 0 W/m 7,7 km/h (2 Bft)
02.11.2013 17:32 12,0 C 10,6 C 98 % 1002,5 hPa 0,0 l/m 0 min 0 min 0,0 UV-I 0 W/m 0,0 km/h (0 Bft)
02.11.2013 17:34 12,0 C 10,6 C 98 % 1002,6 hPa 0,0 l/m 0 min 0 min 0,0 UV-I 0 W/m 5,1 km/h (1 Bft)
02.11.2013 17:36 11,9 C 10,6 C 98 % 1002,6 hPa 0,0 l/m 0 min 0 min 0,0 UV-I 0 W/m 2,6 km/h (1 Bft)
02.11.2013 17:38 11,9 C 10,6 C 98 % 1002,5 hPa 0,0 l/m 0 min 0 min 0,0 UV-I 0 W/m 0,0 km/h (0 Bft)
02.11.2013 17:40 11,9 C 10,0 C 98 % 1002,5 hPa 0,0 l/m 0 min 0 min 0,0 UV-I 0 W/m 0,0 km/h (0 Bft)
02.11.2013 17:42 11,9 C 10,0 C 97 % 1002,4 hPa 0,0 l/m 0 min 0 min 0,0 UV-I 0 W/m 2,6 km/h (1 Bft)
02.11.2013 17:44 11,9 C 10,0 C 97 % 1002,4 hPa 0,0 l/m 0 min 0 min 0,0 UV-I 0 W/m 2,6 km/h (1 Bft)
02.11.2013 17:46 11,8 C 10,0 C 97 % 1002,5 hPa 0,0 l/m 0 min 0 min 0,0 UV-I 0 W/m 2,6 km/h (1 Bft)
02.11.2013 17:48 11,8 C 10,0 C 97 % 1002,5 hPa 0,0 l/m 0 min 0 min 0,0 UV-I 0 W/m 2,6 km/h (1 Bft)
02.11.2013 17:50 11,8 C 10,0 C 97 % 1002,5 hPa 0,0 l/m 0 min 0 min 0,0 UV-I 0 W/m 2,6 km/h (1 Bft)
02.11.2013 17:52 11,8 C 10,0 C 97 % 1002,5 hPa 0,0 l/m 0 min 0 min 0,0 UV-I 0 W/m 7,7 km/h (2 Bft)
02.11.2013 17:54 11,8 C 10,0 C 97 % 1002,6 hPa 0,0 l/m 0 min 0 min 0,0 UV-I 0 W/m 0,0 km/h (0 Bft)
02.11.2013 17:56 11,7 C 10,0 C 97 % 1002,6 hPa 0,0 l/m 0 min 0 min 0,0 UV-I 0 W/m 7,7 km/h (2 Bft)
02.11.2013 17:58 11,7 C 10,0 C 97 % 1002,5 hPa 0,0 l/m 0 min 0 min 0,0 UV-I 0 W/m 0,0 km/h (0 Bft)
02.11.2013 18:00 11,7 C 10,0 C 98 % 1002,5 hPa 0,0 l/m 0 min 0 min 0,0 UV-I 0 W/m 5,1 km/h (1 Bft)
02.11.2013 18:02 11,7 C 10,0 C 98 % 1002,6 hPa 0,0 l/m 0 min 0 min 0,0 UV-I 0 W/m 0,0 km/h (0 Bft)
02.11.2013 18:06 11,7 C 10,0 C 98 % 1002,7 hPa 0,0 l/m 0 min 0 min 0,0 UV-I 0 W/m 0,0 km/h (0 Bft)
02.11.2013 18:08 11,7 C 10,0 C 98 % 1002,6 hPa 0,0 l/m 0 min 0 min 0,0 UV-I 0 W/m 5,1 km/h (1 Bft)
02.11.2013 18:10 11,7 C 10,0 C 98 % 1002,6 hPa 0,0 l/m 0 min 0 min 0,0 UV-I 0 W/m 5,1 km/h (1 Bft)
02.11.2013 18:12 11,7 C 10,0 C 98 % 1002,6 hPa 0,0 l/m 0 min 0 min 0,0 UV-I 0 W/m 7,7 km/h (2 Bft)
02.11.2013 18:14 11,7 C 10,0 C 98 % 1002,5 hPa 0,0 l/m 0 min 0 min 0,0 UV-I 0 W/m 0,0 km/h (0 Bft)
02.11.2013 18:16 11,7 C 10,0 C 98 % 1002,5 hPa 0,0 l/m 0 min 0 min 0,0 UV-I 0 W/m 0,0 km/h (0 Bft)
02.11.2013 18:18 11,7 C 10,0 C 98 % 1002,5 hPa 0,0 l/m 0 min 0 min 0,0 UV-I 0 W/m 5,1 km/h (1 Bft)
02.11.2013 18:20 11,7 C 10,0 C 98 % 1002,6 hPa 0,0 l/m 0 min 0 min 0,0 UV-I 0 W/m 2,6 km/h (1 Bft)
02.11.2013 18:22 11,7 C 10,0 C 98 % 1002,5 hPa 0,0 l/m 0 min 0 min 0,0 UV-I 0 W/m 5,1 km/h (1 Bft)
02.11.2013 18:24 11,7 C 10,0 C 98 % 1002,5 hPa 0,0 l/m 0 min 0 min 0,0 UV-I 0 W/m 7,7 km/h (2 Bft)
02.11.2013 18:26 11,7 C 10,0 C 98 % 1002,5 hPa 0,0 l/m 0 min 0 min 0,0 UV-I 0 W/m 2,6 km/h (1 Bft)
02.11.2013 18:28 11,7 C 10,0 C 98 % 1002,4 hPa 0,0 l/m 0 min 2 min 0,0 UV-I 0 W/m 2,6 km/h (1 Bft)
02.11.2013 18:30 11,7 C 10,0 C 98 % 1002,4 hPa 0,0 l/m 0 min 0 min 0,0 UV-I 0 W/m 5,1 km/h (1 Bft)
02.11.2013 18:32 11,7 C 10,0 C 98 % 1002,5 hPa 0,0 l/m 0 min 0 min 0,0 UV-I 0 W/m 5,1 km/h (1 Bft)
02.11.2013 18:34 11,7 C 10,0 C 98 % 1002,5 hPa 0,0 l/m 0 min 0 min 0,0 UV-I 0 W/m 7,7 km/h (2 Bft)
02.11.2013 18:36 11,6 C 10,0 C 98 % 1002,5 hPa 0,0 l/m 0 min 0 min 0,0 UV-I 0 W/m 5,1 km/h (1 Bft)
02.11.2013 18:38 11,6 C 10,0 C 98 % 1002,5 hPa 0,0 l/m 0 min 0 min 0,0 UV-I 0 W/m 10,3 km/h (2 Bft)
02.11.2013 18:40 11,6 C 10,0 C 98 % 1002,6 hPa 0,0 l/m 0 min 0 min 0,0 UV-I 0 W/m 7,7 km/h (2 Bft)
02.11.2013 18:42 11,6 C 10,0 C 98 % 1002,5 hPa 0,0 l/m 0 min 0 min 0,0 UV-I 0 W/m 7,7 km/h (2 Bft)
02.11.2013 18:44 11,5 C 10,0 C 98 % 1002,5 hPa 0,0 l/m 0 min 0 min 0,0 UV-I 0 W/m 0,0 km/h (0 Bft)
02.11.2013 18:46 11,5 C 10,0 C 98 % 1002,5 hPa 0,0 l/m 0 min 0 min 0,0 UV-I 0 W/m 5,1 km/h (1 Bft)
02.11.2013 18:48 11,5 C 10,0 C 98 % 1002,4 hPa 0,0 l/m 0 min 0 min 0,0 UV-I 0 W/m 5,1 km/h (1 Bft)
02.11.2013 18:50 11,4 C 10,0 C 98 % 1002,4 hPa 0,0 l/m 0 min 0 min 0,0 UV-I 0 W/m 5,1 km/h (1 Bft)
02.11.2013 18:52 11,4 C 10,0 C 98 % 1002,4 hPa 0,0 l/m 0 min 0 min 0,0 UV-I 0 W/m 7,7 km/h (2 Bft)
02.11.2013 18:54 11,4 C 10,0 C 98 % 1002,3 hPa 0,0 l/m 0 min 0 min 0,0 UV-I 0 W/m 2,6 km/h (1 Bft)
02.11.2013 18:56 11,4 C 10,0 C 98 % 1002,3 hPa 0,0 l/m 0 min 0 min 0,0 UV-I 0 W/m 10,3 km/h (2 Bft)
02.11.2013 18:58 11,4 C 10,0 C 98 % 1002,4 hPa 0,0 l/m 0 min 0 min 0,0 UV-I 0 W/m 7,7 km/h (2 Bft)
02.11.2013 19:00 11,5 C 10,0 C 98 % 1002,3 hPa 0,0 l/m 0 min 0 min 0,0 UV-I 0 W/m 5,1 km/h (1 Bft)
02.11.2013 19:02 11,5 C 10,0 C 98 % 1002,4 hPa 0,0 l/m 0 min 0 min 0,0 UV-I 0 W/m 2,6 km/h (1 Bft)
02.11.2013 19:04 11,5 C 10,0 C 98 % 1002,3 hPa 0,0 l/m 0 min 0 min 0,0 UV-I 0 W/m 5,1 km/h (1 Bft)
02.11.2013 19:06 11,5 C 10,0 C 98 % 1002,3 hPa 0,0 l/m 0 min 0 min 0,0 UV-I 0 W/m 2,6 km/h (1 Bft)
02.11.2013 19:08 11,5 C 10,0 C 98 % 1002,3 hPa 0,0 l/m 0 min 0 min 0,0 UV-I 0 W/m 0,0 km/h (0 Bft)
02.11.2013 19:10 11,5 C 10,0 C 98 % 1002,3 hPa 0,0 l/m 0 min 0 min 0,0 UV-I 0 W/m 0,0 km/h (0 Bft)
02.11.2013 19:12 11,4 C 10,0 C 98 % 1002,3 hPa 0,0 l/m 0 min 0 min 0,0 UV-I 0 W/m 7,7 km/h (2 Bft)
02.11.2013 19:14 11,4 C 10,0 C 98 % 1002,2 hPa 0,0 l/m 0 min 0 min 0,0 UV-I 0 W/m 18,0 km/h (3 Bft)
02.11.2013 19:16 11,4 C 10,0 C 98 % 1002,3 hPa 0,0 l/m 0 min 0 min 0,0 UV-I 0 W/m 2,6 km/h (1 Bft)
02.11.2013 19:18 11,4 C 10,0 C 98 % 1002,3 hPa 0,0 l/m 0 min 0 min 0,0 UV-I 0 W/m 2,6 km/h (1 Bft)
02.11.2013 19:20 11,4 C 10,0 C 98 % 1002,3 hPa 0,0 l/m 0 min 0 min 0,0 UV-I 0 W/m 7,7 km/h (2 Bft)
02.11.2013 19:22 11,4 C 10,0 C 98 % 1002,3 hPa 0,0 l/m 0 min 0 min 0,0 UV-I 0 W/m 2,6 km/h (1 Bft)
02.11.2013 19:24 11,4 C 10,0 C 98 % 1002,2 hPa 0,0 l/m 0 min 0 min 0,0 UV-I 0 W/m 2,6 km/h (1 Bft)
02.11.2013 19:26 11,4 C 10,0 C 98 % 1002,3 hPa 0,0 l/m 0 min 0 min 0,0 UV-I 0 W/m 12,9 km/h (3 Bft)
02.11.2013 19:28 11,4 C 10,0 C 98 % 1002,2 hPa 0,0 l/m 0 min 0 min 0,0 UV-I 0 W/m 10,3 km/h (2 Bft)
02.11.2013 19:30 11,4 C 10,0 C 98 % 1002,2 hPa 0,0 l/m 0 min 0 min 0,0 UV-I 0 W/m 7,7 km/h (2 Bft)
02.11.2013 19:32 11,4 C 10,0 C 98 % 1002,2 hPa 0,0 l/m 0 min 0 min 0,0 UV-I 0 W/m 7,7 km/h (2 Bft)
02.11.2013 19:34 11,4 C 10,0 C 98 % 1002,2 hPa 0,0 l/m 0 min 0 min 0,0 UV-I 0 W/m 10,3 km/h (2 Bft)
02.11.2013 19:36 11,4 C 10,0 C 98 % 1002,2 hPa 0,0 l/m 0 min 0 min 0,0 UV-I 0 W/m 5,1 km/h (1 Bft)
02.11.2013 19:38 11,4 C 10,0 C 98 % 1002,2 hPa 0,0 l/m 0 min 0 min 0,0 UV-I 0 W/m 7,7 km/h (2 Bft)
02.11.2013 19:40 11,4 C 10,0 C 98 % 1002,2 hPa 0,0 l/m 0 min 0 min 0,0 UV-I 0 W/m 0,0 km/h (0 Bft)
02.11.2013 19:42 11,4 C 10,0 C 98 % 1002,1 hPa 0,0 l/m 0 min 0 min 0,0 UV-I 0 W/m 5,1 km/h (1 Bft)
02.11.2013 19:44 11,4 C 9,4 C 98 % 1002,1 hPa 0,0 l/m 0 min 0 min 0,0 UV-I 0 W/m 15,4 km/h (3 Bft)
02.11.2013 19:46 11,4 C 10,0 C 98 % 1002,1 hPa 0,0 l/m 0 min 0 min 0,0 UV-I 0 W/m 15,4 km/h (3 Bft)
02.11.2013 19:48 11,4 C 10,0 C 98 % 1002,1 hPa 0,0 l/m 0 min 0 min 0,0 UV-I 0 W/m 0,0 km/h (0 Bft)
02.11.2013 19:50 11,4 C 10,0 C 98 % 1002,0 hPa 0,0 l/m 0 min 0 min 0,0 UV-I 0 W/m 7,7 km/h (2 Bft)
02.11.2013 19:52 11,4 C 10,0 C 98 % 1002,0 hPa 0,0 l/m 0 min 0 min 0,0 UV-I 0 W/m 5,1 km/h (1 Bft)
02.11.2013 19:54 11,4 C 10,0 C 98 % 1001,9 hPa 0,0 l/m 0 min 0 min 0,0 UV-I 0 W/m 10,3 km/h (2 Bft)
02.11.2013 19:56 11,4 C 10,0 C 98 % 1002,0 hPa 0,0 l/m 0 min 0 min 0,0 UV-I 0 W/m 10,3 km/h (2 Bft)
02.11.2013 19:58 11,4 C 10,0 C 98 % 1001,9 hPa 0,0 l/m 0 min 0 min 0,0 UV-I 0 W/m 12,9 km/h (3 Bft)
02.11.2013 20:00 11,5 C 10,0 C 98 % 1001,9 hPa 0,0 l/m 0 min 0 min 0,0 UV-I 0 W/m 12,9 km/h (3 Bft)
02.11.2013 20:02 11,5 C 10,0 C 97 % 1001,9 hPa 0,0 l/m 0 min 0 min 0,0 UV-I 0 W/m 15,4 km/h (3 Bft)
02.11.2013 20:04 11,6 C 10,0 C 97 % 1001,9 hPa 0,0 l/m 0 min 0 min 0,0 UV-I 0 W/m 7,7 km/h (2 Bft)
02.11.2013 20:06 11,6 C 10,0 C 98 % 1001,9 hPa 0,0 l/m 0 min 0 min 0,0 UV-I 0 W/m 23,2 km/h (4 Bft)
02.11.2013 20:08 11,6 C 10,0 C 98 % 1001,9 hPa 0,0 l/m 0 min 0 min 0,0 UV-I 0 W/m 20,6 km/h (4 Bft)
02.11.2013 20:10 11,7 C 10,0 C 98 % 1001,9 hPa 0,0 l/m 0 min 0 min 0,0 UV-I 0 W/m 15,4 km/h (3 Bft)
02.11.2013 20:12 11,7 C 10,0 C 98 % 1001,8 hPa 0,0 l/m 0 min 0 min 0,0 UV-I 0 W/m 10,3 km/h (2 Bft)
02.11.2013 20:14 11,7 C 10,0 C 97 % 1001,9 hPa 0,0 l/m 0 min 0 min 0,0 UV-I 0 W/m 5,1 km/h (1 Bft)
02.11.2013 20:16 11,7 C 10,0 C 97 % 1001,8 hPa 0,0 l/m 0 min 0 min 0,0 UV-I 0 W/m 7,7 km/h (2 Bft)
02.11.2013 20:18 11,7 C 10,0 C 97 % 1001,8 hPa 0,0 l/m 0 min 0 min 0,0 UV-I 0 W/m 7,7 km/h (2 Bft)
02.11.2013 20:20 11,7 C 10,0 C 97 % 1001,8 hPa 0,0 l/m 0 min 0 min 0,0 UV-I 0 W/m 18,0 km/h (3 Bft)
02.11.2013 20:22 11,8 C 10,0 C 97 % 1001,7 hPa 0,0 l/m 0 min 0 min 0,0 UV-I 0 W/m 10,3 km/h (2 Bft)
02.11.2013 20:24 11,8 C 10,0 C 97 % 1001,8 hPa 0,0 l/m 0 min 0 min 0,0 UV-I 0 W/m 7,7 km/h (2 Bft)
02.11.2013 20:26 11,8 C 10,0 C 97 % 1001,8 hPa 0,0 l/m 0 min 0 min 0,0 UV-I 0 W/m 10,3 km/h (2 Bft)
02.11.2013 20:28 11,8 C 10,0 C 97 % 1001,7 hPa 0,0 l/m 0 min 0 min 0,0 UV-I 0 W/m 15,4 km/h (3 Bft)
02.11.2013 20:30 11,8 C 10,0 C 97 % 1001,7 hPa 0,0 l/m 0 min 0 min 0,0 UV-I 0 W/m 12,9 km/h (3 Bft)
02.11.2013 20:32 11,8 C 10,0 C 97 % 1001,7 hPa 0,0 l/m 0 min 0 min 0,0 UV-I 0 W/m 10,3 km/h (2 Bft)
02.11.2013 20:34 11,9 C 10,0 C 97 % 1001,8 hPa 0,0 l/m 0 min 0 min 0,0 UV-I 0 W/m 12,9 km/h (3 Bft)
02.11.2013 20:36 11,9 C 10,0 C 97 % 1001,7 hPa 0,0 l/m 0 min 0 min 0,0 UV-I 0 W/m 12,9 km/h (3 Bft)
02.11.2013 20:38 11,9 C 10,0 C 97 % 1001,7 hPa 0,0 l/m 0 min 0 min 0,0 UV-I 0 W/m 12,9 km/h (3 Bft)
02.11.2013 20:40 11,9 C 10,0 C 96 % 1001,7 hPa 0,2 l/m 0 min 0 min 0,0 UV-I 0 W/m 25,7 km/h (4 Bft)
02.11.2013 20:42 12,0 C 10,0 C 96 % 1001,6 hPa 0,0 l/m 0 min 0 min 0,0 UV-I 0 W/m 2,6 km/h (1 Bft)
02.11.2013 20:44 12,0 C 10,0 C 96 % 1001,6 hPa 0,0 l/m 0 min 0 min 0,0 UV-I 0 W/m 15,4 km/h (3 Bft)
02.11.2013 20:46 12,0 C 10,0 C 96 % 1001,6 hPa 0,0 l/m 0 min 0 min 0,0 UV-I 0 W/m 10,3 km/h (2 Bft)
02.11.2013 20:48 12,0 C 10,0 C 96 % 1001,5 hPa 0,0 l/m 0 min 0 min 0,0 UV-I 0 W/m 15,4 km/h (3 Bft)
02.11.2013 20:50 12,1 C 10,0 C 96 % 1001,5 hPa 0,0 l/m 0 min 0 min 0,0 UV-I 0 W/m 20,6 km/h (4 Bft)
02.11.2013 20:52 12,1 C 10,0 C 96 % 1001,5 hPa 0,0 l/m 0 min 0 min 0,0 UV-I 0 W/m 7,7 km/h (2 Bft)
02.11.2013 20:54 12,1 C 10,0 C 95 % 1001,5 hPa 0,0 l/m 0 min 0 min 0,0 UV-I 0 W/m 7,7 km/h (2 Bft)
02.11.2013 20:56 12,1 C 10,0 C 95 % 1001,4 hPa 0,0 l/m 0 min 0 min 0,0 UV-I 0 W/m 18,0 km/h (3 Bft)
02.11.2013 20:58 12,1 C 10,0 C 95 % 1001,3 hPa 0,0 l/m 0 min 0 min 0,0 UV-I 0 W/m 2,6 km/h (1 Bft)
02.11.2013 21:00 12,1 C 10,0 C 95 % 1001,4 hPa 0,0 l/m 0 min 0 min 0,0 UV-I 0 W/m 28,3 km/h (4 Bft)
02.11.2013 21:02 12,1 C 10,0 C 95 % 1001,3 hPa 0,0 l/m 0 min 0 min 0,0 UV-I 0 W/m 7,7 km/h (2 Bft)
02.11.2013 21:04 12,1 C 10,0 C 94 % 1001,4 hPa 0,0 l/m 0 min 0 min 0,0 UV-I 0 W/m 10,3 km/h (2 Bft)
02.11.2013 21:06 12,1 C 10,0 C 94 % 1001,3 hPa 0,0 l/m 0 min 0 min 0,0 UV-I 0 W/m 18,0 km/h (3 Bft)
02.11.2013 21:08 12,2 C 10,0 C 94 % 1001,3 hPa 0,0 l/m 0 min 0 min 0,0 UV-I 0 W/m 10,3 km/h (2 Bft)
02.11.2013 21:10 12,2 C 10,0 C 94 % 1001,2 hPa 0,0 l/m 0 min 0 min 0,0 UV-I 0 W/m 10,3 km/h (2 Bft)
02.11.2013 21:12 12,2 C 10,0 C 94 % 1001,2 hPa 0,0 l/m 0 min 0 min 0,0 UV-I 0 W/m 7,7 km/h (2 Bft)
02.11.2013 21:14 12,2 C 10,0 C 94 % 1001,3 hPa 0,0 l/m 0 min 0 min 0,0 UV-I 0 W/m 15,4 km/h (3 Bft)
02.11.2013 21:16 12,2 C 10,0 C 94 % 1001,3 hPa 0,0 l/m 0 min 0 min 0,0 UV-I 0 W/m 7,7 km/h (2 Bft)
02.11.2013 21:18 12,2 C 10,0 C 94 % 1001,3 hPa 0,0 l/m 0 min 0 min 0,0 UV-I 0 W/m 10,3 km/h (2 Bft)
02.11.2013 21:20 12,2 C 10,0 C 94 % 1001,3 hPa 0,0 l/m 0 min 0 min 0,0 UV-I 0 W/m 10,3 km/h (2 Bft)
02.11.2013 21:22 12,2 C 10,0 C 93 % 1001,3 hPa 0,0 l/m 0 min 0 min 0,0 UV-I 0 W/m 20,6 km/h (4 Bft)
02.11.2013 21:24 12,2 C 10,0 C 93 % 1001,2 hPa 0,0 l/m 0 min 0 min 0,0 UV-I 0 W/m 15,4 km/h (3 Bft)
02.11.2013 21:26 12,2 C 10,0 C 93 % 1001,3 hPa 0,0 l/m 0 min 0 min 0,0 UV-I 0 W/m 7,7 km/h (2 Bft)
02.11.2013 21:28 12,2 C 10,0 C 93 % 1001,2 hPa 0,0 l/m 0 min 0 min 0,0 UV-I 0 W/m 10,3 km/h (2 Bft)
02.11.2013 21:30 12,2 C 10,0 C 93 % 1001,2 hPa 0,0 l/m 0 min 0 min 0,0 UV-I 0 W/m 0,0 km/h (0 Bft)
02.11.2013 21:32 12,1 C 10,0 C 93 % 1001,2 hPa 0,0 l/m 0 min 0 min 0,0 UV-I 0 W/m 15,4 km/h (3 Bft)
02.11.2013 21:34 12,1 C 10,0 C 93 % 1001,2 hPa 0,0 l/m 0 min 0 min 0,0 UV-I 0 W/m 28,3 km/h (4 Bft)
02.11.2013 21:36 12,1 C 10,0 C 93 % 1001,2 hPa 0,0 l/m 0 min 0 min 0,0 UV-I 0 W/m 10,3 km/h (2 Bft)
02.11.2013 21:38 12,1 C 10,0 C 93 % 1001,0 hPa 0,0 l/m 0 min 0 min 0,0 UV-I 0 W/m 7,7 km/h (2 Bft)
02.11.2013 21:40 12,2 C 10,0 C 92 % 1001,0 hPa 0,0 l/m 0 min 0 min 0,0 UV-I 0 W/m 18,0 km/h (3 Bft)
02.11.2013 21:42 12,2 C 10,0 C 95 % 1000,9 hPa 0,0 l/m 0 min 0 min 0,0 UV-I 0 W/m 15,4 km/h (3 Bft)
02.11.2013 21:44 12,2 C 10,0 C 92 % 1000,9 hPa 0,0 l/m 0 min 0 min 0,0 UV-I 0 W/m 10,3 km/h (2 Bft)
02.11.2013 21:46 12,2 C 10,0 C 92 % 1000,9 hPa 0,0 l/m 0 min 0 min 0,0 UV-I 0 W/m 10,3 km/h (2 Bft)
02.11.2013 21:48 12,2 C 10,0 C 92 % 1000,9 hPa 0,0 l/m 0 min 0 min 0,0 UV-I 0 W/m 15,4 km/h (3 Bft)
02.11.2013 21:50 12,2 C 10,0 C 92 % 1000,9 hPa 0,0 l/m 0 min 0 min 0,0 UV-I 0 W/m 7,7 km/h (2 Bft)
02.11.2013 21:52 12,2 C 10,6 C 92 % 1000,9 hPa 0,0 l/m 0 min 0 min 0,0 UV-I 0 W/m 15,4 km/h (3 Bft)
02.11.2013 21:54 12,3 C 10,6 C 92 % 1000,8 hPa 0,0 l/m 0 min 0 min 0,0 UV-I 0 W/m 20,6 km/h (4 Bft)
02.11.2013 21:56 12,3 C 10,6 C 92 % 1000,9 hPa 0,0 l/m 0 min 0 min 0,0 UV-I 0 W/m 10,3 km/h (2 Bft)
02.11.2013 21:58 12,3 C 10,6 C 91 % 1000,8 hPa 0,0 l/m 0 min 0 min 0,0 UV-I 0 W/m 5,1 km/h (1 Bft)
02.11.2013 22:00 12,4 C 10,6 C 91 % 1000,7 hPa 0,0 l/m 0 min 0 min 0,0 UV-I 0 W/m 15,4 km/h (3 Bft)
02.11.2013 22:02 12,4 C 10,6 C 91 % 1000,7 hPa 0,0 l/m 0 min 0 min 0,0 UV-I 0 W/m 7,7 km/h (2 Bft)
02.11.2013 22:04 12,4 C 10,6 C 91 % 1000,8 hPa 0,0 l/m 0 min 0 min 0,0 UV-I 0 W/m 7,7 km/h (2 Bft)
02.11.2013 22:06 12,4 C 10,6 C 91 % 1000,7 hPa 0,0 l/m 0 min 0 min 0,0 UV-I 0 W/m 10,3 km/h (2 Bft)
02.11.2013 22:08 12,4 C 10,6 C 91 % 1000,8 hPa 0,0 l/m 0 min 0 min 0,0 UV-I 0 W/m 10,3 km/h (2 Bft)
02.11.2013 22:10 12,4 C 10,6 C 91 % 1000,8 hPa 0,0 l/m 0 min 0 min 0,0 UV-I 0 W/m 12,9 km/h (3 Bft)
02.11.2013 22:12 12,4 C 10,6 C 91 % 1000,8 hPa 0,0 l/m 0 min 0 min 0,0 UV-I 0 W/m 20,6 km/h (4 Bft)
02.11.2013 22:14 12,4 C 10,6 C 91 % 1000,7 hPa 0,0 l/m 0 min 0 min 0,0 UV-I 0 W/m 12,9 km/h (3 Bft)
02.11.2013 22:16 12,4 C 10,6 C 91 % 1000,8 hPa 0,0 l/m 0 min 0 min 0,0 UV-I 0 W/m 10,3 km/h (2 Bft)
02.11.2013 22:18 12,4 C 10,6 C 91 % 1000,7 hPa 0,0 l/m 0 min 0 min 0,0 UV-I 0 W/m 18,0 km/h (3 Bft)
02.11.2013 22:20 12,4 C 10,6 C 91 % 1000,6 hPa 0,0 l/m 0 min 0 min 0,0 UV-I 0 W/m 7,7 km/h (2 Bft)
02.11.2013 22:22 12,4 C 10,6 C 91 % 1000,6 hPa 0,0 l/m 0 min 0 min 0,0 UV-I 0 W/m 15,4 km/h (3 Bft)
02.11.2013 22:24 12,4 C 10,6 C 91 % 1000,5 hPa 0,0 l/m 0 min 0 min 0,0 UV-I 0 W/m 12,9 km/h (3 Bft)
02.11.2013 22:26 12,4 C 10,6 C 91 % 1000,5 hPa 0,0 l/m 0 min 0 min 0,0 UV-I 0 W/m 10,3 km/h (2 Bft)
02.11.2013 22:28 12,4 C 10,6 C 91 % 1000,5 hPa 0,0 l/m 0 min 0 min 0,0 UV-I 0 W/m 12,9 km/h (3 Bft)
02.11.2013 22:30 12,4 C 10,6 C 91 % 1000,4 hPa 0,0 l/m 0 min 0 min 0,0 UV-I 0 W/m 20,6 km/h (4 Bft)
02.11.2013 22:32 12,5 C 10,6 C 91 % 1000,5 hPa 0,0 l/m 0 min 0 min 0,0 UV-I 0 W/m 20,6 km/h (4 Bft)
02.11.2013 22:34 12,5 C 10,6 C 91 % 1000,4 hPa 0,0 l/m 0 min 0 min 0,0 UV-I 0 W/m 20,6 km/h (4 Bft)
02.11.2013 22:36 12,6 C 10,6 C 91 % 1000,5 hPa 0,0 l/m 0 min 0 min 0,0 UV-I 0 W/m 18,0 km/h (3 Bft)
02.11.2013 22:38 12,6 C 10,6 C 90 % 1000,4 hPa 0,0 l/m 0 min 0 min 0,0 UV-I 0 W/m 7,7 km/h (2 Bft)
02.11.2013 22:40 12,6 C 10,6 C 90 % 1000,4 hPa 0,0 l/m 0 min 0 min 0,0 UV-I 0 W/m 10,3 km/h (2 Bft)
02.11.2013 22:42 12,7 C 10,6 C 90 % 1000,4 hPa 0,0 l/m 0 min 0 min 0,0 UV-I 0 W/m 12,9 km/h (3 Bft)
02.11.2013 22:44 12,7 C 10,6 C 90 % 1000,4 hPa 0,0 l/m 0 min 0 min 0,0 UV-I 0 W/m 7,7 km/h (2 Bft)
02.11.2013 22:46 12,7 C 10,6 C 90 % 1000,3 hPa 0,0 l/m 0 min 0 min 0,0 UV-I 0 W/m 7,7 km/h (2 Bft)
02.11.2013 22:48 12,7 C 10,6 C 90 % 1000,3 hPa 0,0 l/m 0 min 0 min 0,0 UV-I 0 W/m 10,3 km/h (2 Bft)
02.11.2013 22:50 12,7 C 11,1 C 90 % 1000,3 hPa 0,0 l/m 0 min 0 min 0,0 UV-I 0 W/m 15,4 km/h (3 Bft)
02.11.2013 22:52 12,7 C 11,1 C 90 % 1000,3 hPa 0,0 l/m 0 min 0 min 0,0 UV-I 0 W/m 12,9 km/h (3 Bft)
02.11.2013 22:54 12,8 C 11,1 C 90 % 1000,2 hPa 0,0 l/m 0 min 0 min 0,0 UV-I 0 W/m 5,1 km/h (1 Bft)
02.11.2013 22:56 12,8 C 11,1 C 89 % 1000,2 hPa 0,0 l/m 0 min 0 min 0,0 UV-I 0 W/m 12,9 km/h (3 Bft)
02.11.2013 22:58 12,8 C 11,1 C 89 % 1000,2 hPa 0,0 l/m 0 min 0 min 0,0 UV-I 0 W/m 5,1 km/h (1 Bft)
02.11.2013 23:00 12,8 C 11,1 C 89 % 1000,2 hPa 0,0 l/m 0 min 0 min 0,0 UV-I 0 W/m 12,9 km/h (3 Bft)
02.11.2013 23:02 12,8 C 11,1 C 89 % 1000,1 hPa 0,0 l/m 0 min 0 min 0,0 UV-I 0 W/m 10,3 km/h (2 Bft)
02.11.2013 23:04 12,8 C 11,1 C 89 % 1000,0 hPa 0,0 l/m 0 min 0 min 0,0 UV-I 0 W/m 12,9 km/h (3 Bft)
02.11.2013 23:06 12,9 C 11,1 C 89 % 1000,0 hPa 0,0 l/m 0 min 0 min 0,0 UV-I 0 W/m 12,9 km/h (3 Bft)
02.11.2013 23:08 12,9 C 11,1 C 89 % 1000,1 hPa 0,0 l/m 0 min 0 min 0,0 UV-I 0 W/m 10,3 km/h (2 Bft)
02.11.2013 23:10 12,9 C 11,1 C 89 % 1000,0 hPa 0,0 l/m 0 min 2 min 0,0 UV-I 0 W/m 15,4 km/h (3 Bft)
02.11.2013 23:12 12,9 C 11,1 C 89 % 999,9 hPa 0,0 l/m 0 min 0 min 0,0 UV-I 0 W/m 10,3 km/h (2 Bft)
02.11.2013 23:14 12,9 C 10,6 C 89 % 999,7 hPa 0,0 l/m 0 min 0 min 0,0 UV-I 0 W/m 10,3 km/h (2 Bft)
02.11.2013 23:16 12,9 C 10,6 C 89 % 999,8 hPa 0,0 l/m 0 min 0 min 0,0 UV-I 0 W/m 12,9 km/h (3 Bft)
02.11.2013 23:18 12,9 C 11,1 C 89 % 999,8 hPa 0,0 l/m 0 min 0 min 0,0 UV-I 0 W/m 7,7 km/h (2 Bft)
02.11.2013 23:20 12,9 C 11,1 C 89 % 999,8 hPa 0,0 l/m 0 min 0 min 0,0 UV-I 0 W/m 15,4 km/h (3 Bft)
02.11.2013 23:22 12,9 C 10,6 C 89 % 999,7 hPa 0,0 l/m 0 min 0 min 0,0 UV-I 0 W/m 5,1 km/h (1 Bft)
02.11.2013 23:24 12,9 C 11,1 C 89 % 999,6 hPa 0,0 l/m 0 min 0 min 0,0 UV-I 0 W/m 12,9 km/h (3 Bft)
02.11.2013 23:26 12,9 C 11,1 C 89 % 999,5 hPa 0,0 l/m 0 min 0 min 0,0 UV-I 0 W/m 15,4 km/h (3 Bft)
02.11.2013 23:28 12,9 C 11,1 C 89 % 999,5 hPa 0,0 l/m 0 min 0 min 0,0 UV-I 0 W/m 18,0 km/h (3 Bft)
02.11.2013 23:30 13,0 C 11,1 C 89 % 999,4 hPa 0,0 l/m 0 min 0 min 0,0 UV-I 0 W/m 7,7 km/h (2 Bft)
02.11.2013 23:32 13,0 C 11,1 C 89 % 999,4 hPa 0,0 l/m 0 min 0 min 0,0 UV-I 0 W/m 23,2 km/h (4 Bft)
02.11.2013 23:34 13,0 C 11,1 C 89 % 999,5 hPa 0,0 l/m 0 min 0 min 0,0 UV-I 0 W/m 20,6 km/h (4 Bft)
02.11.2013 23:36 13,1 C 11,1 C 89 % 999,4 hPa 0,0 l/m 0 min 0 min 0,0 UV-I 0 W/m 18,0 km/h (3 Bft)
02.11.2013 23:38 13,1 C 11,1 C 89 % 999,5 hPa 0,0 l/m 0 min 0 min 0,0 UV-I 0 W/m 18,0 km/h (3 Bft)
02.11.2013 23:40 13,1 C 11,1 C 89 % 999,3 hPa 0,0 l/m 0 min 0 min 0,0 UV-I 0 W/m 12,9 km/h (3 Bft)
02.11.2013 23:42 13,1 C 11,1 C 89 % 999,5 hPa 0,0 l/m 0 min 0 min 0,0 UV-I 0 W/m 23,2 km/h (4 Bft)
02.11.2013 23:44 13,2 C 11,1 C 89 % 999,4 hPa 0,0 l/m 0 min 0 min 0,0 UV-I 0 W/m 20,6 km/h (4 Bft)
02.11.2013 23:46 13,1 C 11,1 C 89 % 999,4 hPa 0,0 l/m 0 min 2 min 0,0 UV-I 0 W/m 23,2 km/h (4 Bft)
02.11.2013 23:48 13,1 C 11,1 C 89 % 999,4 hPa 0,0 l/m 0 min 2 min 0,0 UV-I 0 W/m 20,6 km/h (4 Bft)
02.11.2013 23:50 13,1 C 10,6 C 90 % 999,4 hPa 0,0 l/m 0 min 2 min 0,0 UV-I 0 W/m 12,9 km/h (3 Bft)
02.11.2013 23:52 13,0 C 10,6 C 90 % 999,7 hPa 0,2 l/m 0 min 2 min 0,0 UV-I 0 W/m 12,9 km/h (3 Bft)
02.11.2013 23:54 12,9 C 10,6 C 91 % 999,8 hPa 0,2 l/m 0 min 2 min 0,0 UV-I 0 W/m 18,0 km/h (3 Bft)
02.11.2013 23:56 12,8 C 10,6 C 91 % 999,9 hPa 0,2 l/m 0 min 2 min 0,0 UV-I 0 W/m 18,0 km/h (3 Bft)
02.11.2013 23:58 12,7 C 10,6 C 92 % 999,8 hPa 0,0 l/m 0 min 2 min 0,0 UV-I 0 W/m 23,2 km/h (4 Bft)
_ Min-Zeit 00:00 00:00 22:56 23:40 - - - - - 05:26
Minimum _ 8,2 C 7,2 C 89 % 999,3 hPa - - - - - 0,0 km/h (0 Bft)
_ Max-Zeit 14:52 13:32 01:58 00:00 00:12 14:38 00:00 00:00 11:44 03:00
Maximum _ 13,4 C 12,2 C 100 % 1007,1 hPa 0,2 l/m 2 min 2 min 0,0 UV-I 176 W/m 33,5 km/h
O-SO (5 Bft)
Durchschnitt _ 10,9 C 9,6 C 97 % 1001,6 hPa #6,4 l/m #2 min. #5:54 h 0,0 UV-I 53 W/m 7,3 km/h (2 Bft)
© 2013 W. Hausmann